[{"header": {"dx": 0.06612293990616946, "dy": 0.0552356325346848, "nx": 98, "ny": 59, "la1": 35.046912555036876, "la2": 31.78801023549047, "lo1": -121.43107172385933, "lo2": -114.95102361305473, "refTime": "2026041606", "parameterCategory": 1, "parameterNumber": 2}, "data": [9.61, 9.61, 9.88, 9.64, 9.52, 9.61, 9.97, 9.61, 9.23, 9.22, 8.95, 7.82, 8.31, 9.17, 0.0, 0.0, 0.0, -2.71, -2.82, -3.04, -5.8, -7.19, -3.68, 0.0, 0.0, 0.0, 3.82, 3.96, 6.7, 5.4, 5.6, 7.78, 8.85, 10.0, 9.55, 9.7, 8.91, 9.03, 8.91, 10.08, 7.87, 5.75, 6.45, 7.85, 10.59, 12.89, 16.74, 15.13, 13.28, 5.15, 8.31, 9.6, 10.01, 10.3, 10.39, 11.63, 12.11, 12.52, 12.94, 12.56, 12.27, 12.45, 11.52, 10.69, 10.36, 11.07, 11.76, 12.03, 12.79, 13.54, 13.71, 13.2, 13.02, 13.27, 12.52, 12.35, 13.19, 13.39, 14.36, 14.5, 13.75, -0.0, -9.17, -8.85, -8.53, -0.0, 8.53, 11.18, 10.96, 10.6, 11.2, 11.37, 12.03, 13.19, 14.55, 14.3, 12.83, 12.9, 9.61, 9.61, 9.61, 9.64, 9.67, 9.57, 9.35, 9.28, 9.33, 9.3, 8.56, 8.31, 7.78, 10.41, 11.6, 12.07, 0.0, -3.82, -2.93, -4.32, -6.0, -5.8, -7.19, -5.8, 0.0, 5.0, 5.2, 3.82, 3.82, 3.04, 3.47, 6.2, 7.51, 8.8, 7.47, 8.48, 7.63, 8.37, 8.63, 9.75, 10.01, 6.9, 6.87, 7.79, 10.6, 14.99, 15.05, 12.98, 2.72, 5.81, 8.57, 9.12, 10.01, 10.1, 10.17, 10.47, 11.58, 12.16, 12.5, 12.56, 12.27, 11.93, 11.17, 10.3, 10.3, 10.73, 11.44, 11.76, 12.79, 13.54, 14.36, 13.9, 14.39, 12.89, 12.89, 12.65, 13.19, 13.39, 14.36, 14.5, 13.75, -0.0, -9.17, -8.85, -8.53, -0.0, 8.53, 11.18, 10.96, 10.6, 11.2, 11.37, 12.03, 13.19, 14.55, 14.3, 12.83, 12.9, 9.61, 9.61, 9.61, 9.64, 9.92, 9.96, 9.61, 9.66, 9.02, 9.38, 8.31, 6.62, 7.19, 8.53, 9.67, 10.4, 8.22, 0.0, 0.0, -3.14, -3.68, -6.44, -6.44, -6.0, 0.0, 3.39, 7.59, 9.6, 5.0, 0.0, 0.0, 0.0, 0.0, 3.53, 6.79, 8.0, 7.6, 8.0, 8.34, 9.86, 8.53, 6.87, 8.36, 10.21, 11.73, 12.33, 10.79, 8.05, 7.32, 8.83, 8.83, 9.12, 9.12, 10.01, 9.22, 9.49, 11.3, 12.16, 12.13, 12.56, 12.27, 11.57, 10.3, 10.3, 10.3, 11.07, 11.8, 12.4, 12.4, 13.1, 13.8, 14.39, 14.24, 13.89, 13.56, 13.99, 14.75, 14.51, 14.03, 14.65, 14.07, 11.99, -0.0, -10.8, -9.67, -5.2, 3.53, 10.0, 11.18, 11.72, 12.5, 12.27, 11.8, 13.19, 14.03, 13.41, 12.96, 12.44, 9.61, 9.61, 9.61, 9.64, 9.64, 9.67, 9.57, 9.61, 9.28, 9.06, 7.99, 6.94, 6.63, 6.97, 8.22, 9.67, 11.03, 8.53, 0.0, 0.0, -1.84, -2.71, -5.75, -5.0, -5.4, -4.1, 0.0, 6.95, 8.8, 0.0, -1.98, -1.96, -2.21, 0.0, 5.6, 7.59, 7.27, 8.93, 7.68, 8.22, 8.46, 9.31, 8.84, 8.46, 9.3, 12.14, 12.39, 9.31, 9.6, 9.6, 8.85, 9.89, 9.6, 8.85, 9.06, 9.8, 11.52, 11.93, 12.56, 12.6, 12.74, 11.17, 10.63, 9.8, 10.3, 11.42, 11.58, 11.94, 12.78, 13.88, 13.63, 13.64, 14.38, 13.86, 14.16, 13.72, 14.68, 15.2, 15.12, 13.83, 13.36, 12.45, 11.6, -11.62, -10.84, -10.4, 10.8, 11.62, 10.84, 12.62, 12.89, 13.19, 12.39, 13.41, 12.96, 13.41, 12.86, 11.72, 9.61, 9.61, 9.61, 9.64, 9.64, 9.92, 9.96, 9.87, 9.39, 8.75, 7.85, 6.63, 6.4, 6.97, 6.71, 8.22, 8.22, 9.67, 3.68, 0.0, -2.54, -5.6, -5.2, -6.97, -6.87, -7.24, -6.94, 0.0, 5.0, 3.25, 0.0, -1.39, -3.06, -2.06, 1.77, 5.02, 7.54, 8.31, 7.9, 7.79, 7.9, 9.17, 11.64, 13.86, 13.86, 13.15, 12.13, 11.44, 11.2, 10.75, 10.43, 8.31, 8.31, 7.82, 8.85, 10.43, 12.09, 12.45, 12.74, 12.36, 12.56, 10.94, 9.8, 10.43, 9.87, 11.7, 12.63, 11.7, 12.96, 14.74, 16.07, 15.26, 16.02, 15.59, 14.99, 12.83, 11.53, 13.7, 13.82, 13.38, 12.86, 12.71, 12.07, -10.0, -10.96, -5.2, 10.8, 10.4, 11.99, 13.13, 12.27, 12.96, 10.41, 12.58, 12.71, 12.72, 10.79, 9.62, 9.16, 9.61, 9.61, 9.64, 9.64, 9.92, 9.67, 9.99, 9.66, 9.02, 7.85, 5.89, 7.02, 8.22, 7.9, 7.9, 7.9, 8.22, 5.0, 1.91, -1.44, -3.82, -6.0, -8.38, -7.51, -6.21, -6.21, -2.37, 0.0, 2.93, 2.39, 0.0, 0.0, 0.0, 0.8, 1.96, 4.24, 7.51, 7.63, 6.57, 7.28, 10.12, 13.67, 14.3, 14.3, 14.47, 12.51, 10.86, 10.86, 10.99, 9.8, 8.87, 8.05, 8.31, 10.43, 11.8, 12.9, 12.9, 12.95, 12.79, 11.88, 9.48, 9.71, 9.33, 10.69, 11.36, 12.33, 11.7, 12.01, 15.94, 18.57, 17.34, 15.39, 16.41, 16.58, 15.81, 13.28, 11.12, 12.79, 12.91, 12.07, 11.4, 10.38, 3.68, -6.97, 0.0, 7.02, 10.85, 12.41, 11.29, 10.79, 9.48, 8.05, 7.78, 6.67, 8.38, 9.17, 8.85, 9.16, 9.61, 9.61, 9.64, 9.64, 9.92, 9.67, 9.96, 9.61, 9.42, 7.59, 5.92, 6.76, 8.94, 10.8, 8.93, 7.9, 8.22, 6.45, 4.4, 1.84, 0.0, -5.0, -6.48, -6.63, -5.77, -4.08, -2.62, -1.55, -1.52, 0.0, 0.0, 2.39, 2.97, 2.0, 1.97, 2.81, 6.51, 7.56, 5.7, 6.94, 9.17, 11.44, 13.59, 15.65, 11.68, 10.47, 10.75, 11.09, 11.53, 11.17, 8.87, 9.31, 10.43, 11.64, 11.75, 12.79, 12.79, 13.28, 12.62, 11.37, 9.48, 8.83, 9.66, 9.92, 10.99, 13.26, 12.7, 13.02, 15.99, 19.09, 18.26, 15.71, 15.69, 16.12, 16.12, 14.9, 13.41, 13.41, 13.41, 11.46, 8.93, 9.16, 6.7, 1.98, 2.45, 6.64, 9.62, 11.07, 7.44, 0.0, -0.0, -0.0, 2.2, 5.28, 8.3, 8.85, 9.27, 8.94, 8.94, 9.37, 9.64, 9.64, 9.92, 9.67, 9.7, 9.73, 9.12, 7.59, 5.23, 6.76, 8.22, 10.35, 9.96, 9.97, 9.27, 8.22, 8.22, 11.18, 11.18, 11.71, 0.0, -4.3, -4.15, -3.21, -3.39, -5.2, -4.4, -3.53, 0.0, 0.0, 4.8, 4.62, 3.29, 2.95, 5.0, 7.82, 6.45, 11.18, 12.07, 11.2, 13.86, -0.0, 3.16, 7.76, 11.38, 11.8, 11.9, 8.85, 8.59, 9.8, 10.52, 11.28, 11.28, 12.39, 12.39, 12.72, 11.85, 10.48, 8.38, 7.82, 7.76, 9.35, 12.78, 13.92, 14.53, 14.64, 15.58, 17.84, 18.28, 16.06, 15.65, 15.2, 14.73, 14.06, 12.89, 12.58, 14.27, 13.86, 10.25, 7.41, 6.44, 5.18, 5.16, 6.76, 8.49, 8.61, 4.81, 0.0, -0.0, -0.0, 1.96, 5.28, 8.85, 9.27, 9.67, 9.2, 9.2, 9.37, 9.64, 9.64, 9.92, 9.67, 9.42, 9.45, 8.83, 7.44, 5.4, 5.8, 5.6, 7.24, 8.53, 8.53, 8.53, 8.22, 9.3, 11.18, 11.4, 11.53, 11.91, 4.48, -2.06, -3.7, -5.21, -6.44, -4.8, -1.14, 0.0, 1.04, 2.16, 3.29, 3.51, 4.23, 2.1, 0.0, 11.18, -0.0, -0.0, -12.52, -9.48, -0.0, -0.0, 5.09, 12.01, 12.36, 10.75, 10.43, 8.3, 9.48, 11.28, 11.28, 12.39, 12.39, 12.3, 11.87, 11.3, 9.77, 7.82, 7.82, 8.68, 10.3, 14.4, 15.87, 15.53, 14.75, 14.68, 16.04, 16.5, 16.39, 15.54, 14.64, 14.26, 13.86, 12.96, 13.38, 15.18, 14.29, 12.6, 7.58, 6.2, 5.18, 5.18, 6.21, 7.96, 6.63, 4.1, 12.96, 2.13, -0.0, -0.0, 6.0, 9.62, 9.46, 10.04, 8.97, 9.2, 9.64, 9.64, 9.64, 9.64, 9.67, 9.7, 8.79, 8.83, 7.8, 7.4, 6.3, 5.03, 4.65, 4.81, 5.8, 4.99, 3.82, 2.71, 2.6, 4.4, 7.44, 9.08, 6.71, 2.71, -2.39, -5.9, -6.7, -3.34, 0.0, 0.0, 0.0, 0.0, 0.0, 1.91, 3.39, 8.94, -8.22, -0.0, 12.07, -12.52, -12.07, -8.22, -8.22, -0.0, -0.0, 4.52, 9.39, 8.68, 8.57, 9.6, 10.12, 11.28, 12.03, 13.39, 13.44, 12.0, 11.09, 11.87, 9.22, 8.21, 7.8, 7.98, 11.38, 14.19, 16.6, 15.53, 13.86, 13.39, 13.7, 14.73, 15.61, 15.55, 15.12, 13.25, 12.45, 10.58, 11.61, 14.21, 15.2, 16.51, 11.7, 2.57, 4.87, 6.0, 7.34, 6.88, 4.24, 2.13, 12.3, 5.6, -0.0, -0.0, 6.67, 10.41, 11.5, 11.2, 8.97, 8.97, 9.64, 9.64, 9.64, 10.05, 9.67, 9.45, 8.79, 8.81, 8.18, 8.04, 8.33, 7.17, 5.62, 4.98, 5.48, 4.7, 3.72, 2.33, 1.56, 1.73, 2.72, 3.04, 3.56, 0.0, 0.0, 0.0, -3.65, -2.39, 0.0, -2.28, -9.83, -6.95, -2.39, -2.28, -5.2, -11.62, -11.62, 0.0, 0.0, 0.0, 11.62, 12.07, 11.62, -8.22, -0.0, 3.04, 3.14, 4.98, 8.18, 10.3, 13.1, 13.97, 14.79, 16.05, 16.44, 13.86, 9.83, 9.48, 6.12, 6.64, 6.72, 7.2, 7.82, 11.77, 14.47, 15.16, 15.2, 10.87, 11.09, 12.45, 14.61, 14.86, 14.03, 12.38, 10.4, 8.49, 11.44, 13.84, 14.86, 15.65, 15.61, 5.37, 3.16, 5.48, 5.64, 5.64, 5.31, 9.48, 12.52, 8.85, -0.0, -0.0, 8.53, 12.3, 12.3, 12.3, 8.97, 8.97, 9.64, 9.64, 9.64, 9.64, 9.67, 9.45, 9.07, 8.81, 8.56, 8.43, 8.97, 8.75, 8.15, 7.48, 6.16, 5.4, 5.03, 4.38, 4.31, 2.89, 1.42, 0.0, 0.0, 0.0, -12.07, -4.71, -7.59, -9.6, -10.0, -10.73, -9.6, -9.2, -10.28, -8.58, -8.58, -10.4, -10.4, -10.8, -12.52, -12.07, -0.0, 11.62, -7.59, -3.25, -0.0, -0.0, 3.14, 7.69, 10.12, 13.23, 16.79, 18.49, 18.48, 18.65, 19.64, 18.59, 12.07, -0.0, 1.78, 4.82, 6.47, 3.16, 2.88, 6.08, 12.0, 16.12, 17.25, 16.99, 13.7, 11.53, 12.51, 13.2, 11.6, 9.8, 10.68, 11.8, 12.22, 13.99, 15.78, 15.87, 16.27, 17.53, 17.81, 13.59, 12.33, 9.12, 11.8, 13.86, 12.52, 8.22, -5.2, -0.0, 11.87, 12.71, 12.71, 12.58, 8.97, 8.97, 9.4, 9.64, 9.64, 9.64, 9.67, 9.45, 9.07, 8.81, 8.81, 8.81, 9.09, 9.12, 9.44, 9.17, 9.17, 9.17, 8.49, 9.32, 11.07, 13.86, 15.2, 14.75, 14.3, 13.86, 13.41, -9.17, -10.35, -9.77, -10.96, -11.18, -10.52, -10.08, -9.97, -10.28, -10.28, -11.18, -11.18, -11.18, -11.03, -11.03, -7.9, -6.95, -4.6, -3.39, -3.68, -0.0, 5.8, 11.99, 12.52, 13.41, 14.3, 15.2, 16.99, 18.33, 19.73, 21.63, 16.09, -0.0, -0.0, 3.24, 3.42, -0.0, -0.0, 1.82, 5.88, 12.16, 12.2, 11.2, 13.41, 21.01, 12.79, 11.28, 9.13, 10.68, 14.47, 16.09, 16.09, 16.54, 16.09, 16.54, 16.09, 16.54, 16.76, 18.78, 19.29, 16.6, 15.78, 14.3, 13.59, 11.62, -0.0, 11.62, 12.52, 12.96, 12.96, 13.41, 8.74, 8.97, 9.4, 9.4, 9.64, 9.4, 9.67, 9.45, 9.07, 8.81, 8.81, 8.81, 9.09, 9.77, 9.49, 9.5, 9.83, 10.38, 10.99, 11.69, 12.99, 14.06, 14.66, 14.73, 14.22, 14.18, 13.59, 11.53, -13.41, -12.52, -10.73, -10.73, -11.18, -9.83, -9.83, -9.33, -9.33, -10.28, -10.28, -10.73, -10.73, -9.75, -9.6, -7.27, -3.11, -3.25, -4.2, -7.9, 11.62, 12.52, 12.52, 10.8, 8.53, 10.8, 11.2, 11.87, 15.65, 19.22, 21.46, -0.0, -5.46, -0.0, -0.0, -0.0, -1.65, -0.0, -0.0, 3.09, 9.6, 14.24, 12.19, 7.07, -0.0, 4.6, 11.18, 14.75, 16.54, 17.43, 16.99, 16.76, 16.99, 15.9, 14.99, 14.9, 15.65, 16.41, 17.88, 18.33, 17.43, 16.22, 14.11, 11.18, 0.0, 0.0, 8.85, 11.6, 9.17, 12.96, 9.0, 8.97, 9.4, 9.4, 9.4, 9.4, 9.42, 9.45, 9.19, 8.81, 8.81, 9.09, 9.48, 9.48, 9.49, 9.5, 9.17, 10.18, 10.25, 10.73, 11.42, 12.39, 13.42, 13.7, 13.7, 13.35, 13.15, 12.87, 10.73, 0.0, -12.52, -10.28, -11.18, -10.28, -9.2, -4.6, -4.8, -0.0, 11.18, -9.83, -9.2, -10.73, -9.83, -4.4, -3.11, -3.11, -4.4, -4.6, -7.59, -11.18, 11.62, 7.9, 10.73, 9.39, 9.83, 10.73, 5.2, 11.88, 18.33, 4.23, -4.81, -4.1, -4.38, -4.52, -4.66, -4.81, -0.0, 12.01, 16.09, 17.99, -0.0, -0.0, -0.0, 3.04, 9.48, 13.23, 13.95, 16.96, 16.82, 16.99, 17.43, 16.12, 14.38, 12.33, 10.12, 14.42, 15.2, 16.09, 15.87, 16.22, 16.76, 13.41, 5.2, 0.0, 13.41, 9.17, 12.96, 12.96, 9.0, 9.0, 9.67, 9.67, 9.67, 9.67, 9.42, 9.42, 9.45, 9.47, 8.81, 9.48, 9.48, 9.21, 9.22, 9.21, 8.87, 9.15, 10.18, 10.58, 10.98, 11.69, 12.52, 13.56, 13.79, 14.07, 13.29, 13.05, 11.99, 11.64, 11.16, 0.0, -10.28, -10.73, -7.27, -2.17, -0.0, -0.0, -0.0, -7.27, -6.64, -0.0, -0.0, -0.0, -4.4, -5.21, -3.11, -4.6, -0.0, -0.0, 11.18, 11.62, 8.22, 7.59, 6.64, 9.83, 9.2, 11.03, 13.99, 8.68, -0.0, -0.0, -0.0, -0.0, -0.0, -0.0, 12.96, 0.0, 16.09, 19.67, -21.46, -18.78, 18.78, 8.4, 8.43, 8.2, 11.53, 13.28, 15.25, 15.72, 14.66, 16.39, 16.99, 13.99, 6.7, 3.53, 10.47, 12.71, 12.96, 13.44, 15.43, 12.96, 12.96, 13.41, 12.52, 12.07, 12.52, 12.52, 9.0, 9.0, 9.0, 9.42, 9.0, 9.0, 9.0, 9.42, 9.45, 9.19, 9.47, 9.2, 9.48, 9.49, 9.5, 9.21, 8.87, 9.17, 9.48, 10.55, 10.91, 11.69, 12.25, 13.08, 13.88, 14.03, 14.44, 14.4, 13.99, 13.35, 11.72, 11.6, 9.3, 11.18, -0.0, -0.0, -2.39, -0.0, -0.0, -0.0, -0.0, -0.0, -0.0, -0.0, -0.0, -3.11, -3.25, -0.0, -0.0, -0.0, -0.0, -0.0, 5.0, 7.59, 7.59, 9.2, 10.28, 10.18, 6.7, 4.1, 3.96, 5.0, 7.59, 9.6, 4.8, 4.6, 11.62, 5.2, 0.0, -12.33, -12.15, -9.43, -8.0, -14.86, -0.0, -0.0, 7.14, 10.56, 10.91, 8.4, 5.65, 6.47, -0.0, -0.0, -10.12, 0.0, 3.82, 5.8, 13.41, 13.59, 14.31, 12.89, 12.27, 12.71, 12.79, 11.84, 11.87, 11.87, 9.0, 9.0, 9.0, 9.0, 9.0, 9.0, 9.0, 9.42, 9.42, 9.45, 9.47, 9.2, 9.21, 8.85, 8.86, 9.21, 9.5, 9.48, 9.48, 10.45, 11.12, 12.13, 12.5, 12.97, 13.34, 14.24, 15.05, 14.9, 14.7, 14.33, 13.56, 11.77, 10.61, 10.38, 9.6, -0.0, -0.0, -0.0, -0.0, 9.83, 9.83, 9.83, 9.83, -0.0, -0.0, -0.0, -0.0, -0.0, -0.0, -0.0, 4.6, 4.6, 4.6, 5.7, 5.7, 7.27, 8.55, 5.95, 6.2, 7.9, 8.53, 8.22, 10.18, 9.6, -0.0, -3.11, -0.0, 7.27, 5.4, 0.0, -9.0, -10.12, -11.8, -17.85, -16.54, -3.33, 5.65, 11.27, 12.95, 10.91, 10.89, 10.73, 12.64, 13.41, -8.85, -3.96, 0.0, 0.0, 13.41, 13.88, 12.79, 10.99, 10.68, 11.91, 12.79, 12.04, 11.62, 11.62, 9.0, 9.0, 9.0, 9.0, 9.0, 9.0, 9.0, 9.0, 9.42, 9.45, 9.47, 9.48, 8.83, 8.58, 8.22, 8.84, 8.59, 8.87, 9.46, 10.61, 11.99, 13.33, 12.39, 12.38, 11.87, 13.27, 12.3, 13.05, 12.18, 12.39, 12.23, 11.41, 10.99, 11.3, 11.18, 8.93, 3.25, 4.8, 11.18, 10.73, 9.83, 10.28, 11.18, 10.0, 5.2, 4.8, 4.8, 4.6, -0.0, 4.6, 4.6, 4.6, 3.25, 3.25, 2.49, 4.6, 5.7, 6.2, 8.53, 8.22, 10.4, 10.4, 11.18, -0.0, -4.4, -4.83, -4.2, 9.2, 9.96, 14.03, 17.53, 20.12, 23.15, 24.46, 16.99, 15.65, 16.09, 16.54, 16.82, 16.54, 15.77, 17.2, 16.09, 12.27, 12.72, 11.16, 12.72, 12.96, 13.41, 13.41, 12.79, 12.33, 11.78, 11.51, 13.67, 13.28, 11.88, 11.88, 9.0, 9.0, 9.0, 9.0, 9.0, 8.77, 8.77, 9.0, 9.42, 9.7, 9.73, 9.48, 8.85, 8.22, 8.22, 7.96, 8.24, 7.6, 7.93, 9.3, 11.76, 13.03, 12.54, 11.09, 10.37, 10.37, 11.04, 11.05, 11.18, 10.28, 10.01, 10.56, 10.35, 11.3, 11.62, 10.41, 8.93, 8.93, 9.6, 9.2, 9.6, 10.73, 10.6, 10.0, 8.94, 8.22, 4.6, 4.6, 4.6, 4.4, 4.4, 3.25, -0.0, -0.0, 2.39, 4.4, 6.71, 7.59, 9.6, 10.4, 11.18, 10.73, 10.73, -4.8, -5.7, -5.7, -4.6, 5.0, 11.21, 12.72, 15.69, 18.55, 23.54, 26.28, 20.98, 14.52, 9.66, 9.66, 15.69, 16.99, 15.65, 16.54, 15.2, 13.41, 13.67, 13.23, 13.41, 11.12, 11.6, 12.52, 12.72, 13.41, 12.96, 12.96, 13.86, 14.9, 13.99, 13.99, 8.77, 8.77, 8.77, 8.77, 8.77, 8.77, 8.77, 8.77, 9.17, 9.45, 9.47, 9.48, 8.85, 8.22, 8.59, 8.59, 8.24, 7.6, 6.96, 8.18, 10.51, 11.63, 11.97, 11.68, 11.03, 10.99, 11.01, 10.12, 9.92, 9.08, 9.17, 9.67, 10.09, 11.03, 11.62, 11.18, 10.84, 10.41, 9.6, 9.3, 10.6, 10.6, 10.6, 10.04, 8.22, 8.53, 6.95, 7.27, 7.27, 4.6, -0.0, -0.0, -0.0, -0.0, 2.6, 4.6, 5.75, 5.0, 8.22, 11.18, 11.18, 11.18, -7.59, -7.9, -7.27, -7.59, -3.39, -0.0, 5.8, 7.34, 11.06, 16.17, 22.4, 25.03, 19.08, 13.39, 8.37, 8.48, 8.77, 10.75, 15.43, 15.65, 14.31, 13.01, 13.67, 13.41, 12.45, 10.47, 12.33, 11.84, 10.01, 10.47, 13.39, 12.72, 13.86, 14.75, 14.47, 14.47, 8.33, 8.77, 8.77, 8.77, 8.77, 9.04, 9.04, 9.04, 9.04, 9.45, 9.47, 9.21, 8.85, 8.59, 8.59, 8.51, 8.53, 8.15, 8.59, 9.84, 10.43, 10.4, 10.09, 10.36, 11.23, 11.72, 12.38, 11.73, 11.09, 11.45, 11.21, 11.03, 10.68, 11.03, 11.4, 11.18, 11.4, 10.79, 10.38, 10.38, 10.96, 10.84, 9.3, 8.53, 6.2, 5.95, 7.59, 6.95, -0.0, -0.0, -0.0, -0.0, -0.0, -0.0, -0.0, -0.0, 1.91, 3.04, 5.2, -0.0, -10.28, -10.18, -7.9, -7.9, -7.9, -3.53, -2.82, -2.93, -0.0, 2.89, 7.0, 13.09, 18.2, 20.09, 5.72, 5.02, 6.97, 7.63, 6.01, 3.9, 11.06, 16.54, 15.27, 13.2, 12.13, 11.16, 10.47, 11.17, 13.56, 11.98, 10.8, 9.48, 11.9, 13.28, 14.3, 14.3, 14.75, 14.75, 8.33, 8.33, 8.77, 9.04, 8.79, 8.79, 8.79, 8.79, 8.79, 8.79, 9.47, 9.48, 8.85, 8.86, 8.22, 8.51, 8.51, 8.51, 9.21, 10.45, 11.03, 10.65, 9.66, 10.01, 10.87, 11.88, 12.39, 13.0, 12.49, 12.14, 11.8, 11.28, 11.4, 11.28, 11.51, 11.62, 11.51, 11.51, 11.18, 11.51, 11.51, 11.46, 11.28, 9.67, 8.22, 6.2, 7.59, -0.0, -0.0, -0.0, -0.0, -0.0, -0.0, -0.0, -0.0, -0.0, -0.0, 2.13, 5.8, 4.2, -6.64, -9.75, -8.22, -5.2, -5.0, -4.15, -2.82, -0.0, -3.68, -3.96, -0.0, -0.0, -11.8, -0.0, 0.0, 1.68, 4.17, 6.17, 6.31, 2.96, 2.28, 13.02, 15.65, 14.84, 13.19, 11.28, 11.53, 12.79, 14.61, 14.23, 12.96, 10.73, 8.58, 11.9, 14.3, 14.3, 14.3, 14.3, 8.33, 8.33, 8.37, 8.37, 8.79, 8.79, 8.79, 8.55, 8.81, 8.81, 8.81, 9.09, 8.83, 8.58, 8.22, 8.51, 8.78, 9.16, 9.5, 10.43, 10.99, 10.88, 10.51, 10.41, 10.79, 11.61, 11.99, 12.87, 12.66, 12.36, 12.06, 11.71, 11.36, 11.02, 11.13, 11.18, 11.18, 11.11, 11.55, 11.55, 11.53, 11.51, 11.46, 10.79, 10.4, 9.3, 8.85, 7.9, -0.0, -0.0, -0.0, -0.0, -0.0, -0.0, -0.0, -0.0, -2.49, -2.93, 3.14, 6.45, -0.0, -9.39, -10.0, -8.22, -5.0, -4.48, -0.0, -0.0, -0.0, -7.9, 0.0, 14.54, 24.6, 19.91, 16.54, 0.0, 2.2, 4.55, 6.6, 4.81, 1.96, 5.31, 10.43, 14.03, 14.75, 14.75, 14.6, 14.6, 15.05, 14.39, 12.74, 13.15, 9.8, 4.38, 7.93, 12.79, 13.67, 13.67, 8.37, 8.37, 8.37, 8.37, 8.37, 8.14, 8.4, 8.81, 8.81, 8.81, 8.81, 8.81, 8.83, 8.85, 8.86, 8.49, 9.16, 8.87, 9.21, 9.82, 10.4, 10.88, 10.8, 10.96, 11.22, 11.47, 11.99, 12.23, 12.45, 12.66, 12.36, 12.49, 12.14, 11.4, 11.14, 10.73, 11.18, 11.18, 11.13, 11.62, 11.62, 11.55, 11.09, 11.06, 11.02, 10.52, 11.28, 8.93, 6.95, 5.46, 2.6, -0.0, -0.0, -0.0, -0.0, -0.0, -3.25, -6.95, -0.0, 8.85, 10.0, 9.39, -9.83, -5.95, -4.32, -2.37, -0.0, -0.0, -0.0, 11.62, 9.48, 13.27, 21.74, 27.6, 26.55, 19.25, 16.6, 11.06, 8.94, 9.48, 7.69, 6.2, 6.9, 9.48, 12.65, 13.19, 13.99, 14.55, 15.2, 11.06, 10.87, 11.64, 13.57, 10.43, 3.25, 9.8, 12.39, 12.39, 8.37, 8.37, 8.14, 8.14, 8.14, 8.4, 8.4, 8.4, 8.16, 8.56, 8.83, 8.83, 8.83, 8.85, 8.86, 8.59, 8.87, 8.87, 9.5, 9.8, 10.09, 10.36, 11.16, 11.07, 11.5, 11.36, 11.6, 11.82, 12.04, 12.24, 12.16, 12.3, 12.01, 11.86, 11.52, 11.15, 10.73, 10.73, 11.18, 11.18, 11.18, 11.62, 11.18, 11.09, 10.62, 10.58, 11.46, 10.08, 8.8, 6.95, 5.0, 2.71, -0.0, -0.0, -0.0, -0.0, -3.25, -4.4, -10.28, 11.62, 12.07, 12.07, 9.39, -0.0, -0.0, -0.0, -0.0, -0.0, -4.1, 12.52, 6.7, 13.28, 16.93, 24.09, 26.03, 23.27, 19.33, 17.88, 7.26, 6.45, 7.79, 8.05, 7.54, 7.69, 8.94, 12.22, 13.59, 12.65, 14.75, 8.43, 13.59, 13.38, 13.34, 15.43, 13.15, 13.57, 13.86, 13.86, 8.14, 8.14, 8.14, 8.4, 8.4, 8.4, 8.16, 8.16, 8.43, 8.43, 8.18, 8.57, 8.57, 8.85, 8.58, 8.59, 8.87, 8.87, 9.5, 9.8, 10.09, 10.39, 10.59, 11.07, 11.5, 11.75, 11.6, 11.82, 11.95, 12.16, 12.08, 11.8, 11.95, 11.71, 11.84, 11.52, 11.51, 11.06, 10.7, 10.25, 11.14, 11.62, 11.62, 10.73, 10.28, 11.06, 11.06, 10.14, 9.7, 8.8, 7.59, 5.0, 2.49, -0.0, -0.0, -3.39, -4.8, -7.27, -8.91, -10.28, 12.07, 11.18, 10.84, 7.59, 3.04, -0.0, -0.0, -0.0, -0.0, 9.17, 7.19, 9.48, 13.48, 16.92, 19.08, 23.22, 21.99, 19.2, 5.9, 2.7, 5.2, 7.19, 7.93, 5.11, 6.2, 9.22, 12.22, 13.42, 15.2, 13.99, 15.2, 16.54, 16.38, 15.69, 14.61, 13.57, 13.28, 13.28, 8.14, 8.14, 8.4, 8.16, 8.16, 8.16, 8.16, 8.16, 8.43, 8.18, 8.18, 8.46, 8.85, 8.85, 8.58, 8.86, 8.87, 9.19, 9.19, 9.48, 9.78, 10.06, 10.35, 10.87, 11.07, 11.75, 11.6, 11.82, 11.62, 11.75, 11.87, 11.38, 11.52, 11.71, 11.84, 11.4, 11.36, 11.06, 11.06, 10.62, 11.14, 11.58, 11.18, 10.28, 9.83, 10.65, 10.28, 10.28, 9.83, 10.08, 10.0, 7.59, 3.39, -0.0, -0.0, -5.2, -5.0, -10.18, -9.75, -10.28, 11.18, 10.6, 10.0, 9.66, 6.45, 3.96, -0.0, 12.52, 0.0, 5.8, 10.12, 11.44, 11.16, 11.53, 14.99, 19.67, 23.69, 19.22, 9.8, 1.69, 3.92, 5.86, 7.89, 6.63, 4.93, 6.2, 7.59, 11.06, 15.65, 14.75, 14.75, 15.65, 16.46, 16.39, 15.11, 12.73, 11.54, 11.54, 8.16, 8.16, 8.16, 8.16, 8.16, 8.16, 8.18, 8.18, 8.18, 8.18, 8.2, 8.2, 8.2, 8.58, 8.86, 8.86, 9.21, 9.19, 9.48, 9.48, 9.78, 9.76, 10.01, 10.87, 11.07, 10.96, 11.22, 11.6, 11.41, 11.54, 11.25, 11.38, 11.52, 11.71, 11.23, 11.4, 11.4, 10.93, 10.93, 10.62, 11.05, 11.14, 11.12, 12.07, 12.07, 10.04, 9.33, 9.83, 10.28, 10.28, 10.96, 8.93, 7.27, 4.6, -0.0, -4.8, -8.53, -10.4, -10.18, -10.6, -7.9, 5.0, 10.04, 10.41, 6.7, 4.1, 3.36, -0.0, 0.0, 0.0, 9.8, 13.7, 12.98, 9.48, 7.68, 12.26, 19.15, 18.48, 16.79, 3.33, 3.82, 5.9, 8.37, 8.53, 9.17, 7.44, 0.0, 0.0, 13.59, 10.75, -0.0, 3.69, 9.77, 14.71, 13.41, 12.7, 10.99, 10.99, 7.73, 7.73, 8.16, 8.16, 8.18, 8.18, 8.18, 8.18, 8.2, 8.2, 8.2, 7.95, 8.49, 8.86, 8.86, 8.86, 9.21, 9.5, 9.48, 9.17, 9.46, 9.76, 9.76, 10.3, 10.3, 10.79, 11.06, 11.47, 11.31, 11.54, 11.75, 11.45, 11.58, 11.09, 11.28, 11.23, 11.23, 10.96, 10.93, 10.49, 10.6, 10.58, 11.13, 10.73, 11.18, 11.62, 11.18, 10.28, 10.28, 11.18, 10.6, 9.75, 9.2, 7.27, -0.0, -4.8, -5.46, -6.2, -8.22, -10.0, -4.8, -0.0, 10.8, 8.22, -0.0, -0.0, -0.0, -0.0, 11.18, -4.4, 3.39, 11.99, 16.01, 16.48, 12.71, 13.04, 15.22, 14.78, 17.62, 18.68, 10.81, 6.94, 8.22, 10.61, 11.53, 14.11, 13.59, 14.3, -10.43, -8.18, -7.32, -3.07, 2.21, 11.06, 11.38, 13.03, 12.33, 12.33, 7.5, 7.5, 8.18, 8.18, 8.18, 8.18, 8.2, 8.2, 8.2, 7.95, 7.95, 8.22, 8.22, 8.22, 8.59, 8.86, 9.5, 9.21, 9.19, 9.17, 9.46, 9.46, 9.76, 10.3, 10.3, 10.59, 10.88, 10.94, 11.2, 11.44, 11.54, 11.67, 11.45, 11.38, 11.15, 10.67, 10.84, 10.8, 10.52, 10.49, 10.6, 10.58, 10.68, 10.66, 10.65, 12.07, 12.07, 10.73, 10.28, 10.6, 9.6, 10.28, 10.28, 10.73, 10.73, -7.59, -3.25, -2.82, -2.6, -5.0, -5.0, -0.0, 8.53, 11.62, -12.07, -5.2, -5.2, -0.0, 10.8, 9.83, 2.69, 6.2, 15.43, 22.74, 20.97, 15.53, 12.63, 11.8, 14.18, 18.84, 19.02, 12.01, 11.12, 13.41, 13.27, 13.35, 13.57, 13.39, 3.47, -6.6, -7.59, -5.48, -0.0, 7.0, 11.06, 12.11, 12.7, 12.7, 7.76, 7.76, 7.76, 7.76, 7.93, 8.2, 8.2, 7.95, 7.55, 7.83, 7.83, 7.57, 7.83, 7.96, 8.59, 8.87, 9.21, 9.21, 9.19, 9.19, 9.17, 9.46, 9.76, 10.3, 10.3, 10.59, 10.51, 9.95, 11.2, 10.4, 11.44, 11.44, 11.67, 11.16, 11.38, 10.96, 10.67, 10.67, 10.37, 10.49, 10.02, 10.58, 10.68, 10.68, 10.68, 10.96, 11.11, 10.73, 10.73, 11.18, 10.18, 10.28, 10.73, 7.59, 10.28, -0.0, -0.0, -0.0, -0.0, -0.0, -5.4, -0.0, -0.0, -11.18, -8.22, -5.0, -4.6, 11.62, 12.52, 12.07, 9.75, 0.0, 9.8, 18.78, 28.86, 19.52, 10.99, 7.9, 11.09, 16.51, 17.52, 17.19, 15.65, 13.57, 13.77, 14.42, 14.93, 13.89, 12.27, -0.0, -5.15, -2.81, -0.0, 4.81, 9.89, 11.06, 11.38, 11.38, 7.53, 7.53, 7.53, 7.8, 7.8, 7.8, 7.55, 7.55, 7.83, 7.83, 7.57, 7.57, 7.57, 7.85, 8.23, 8.87, 8.87, 9.5, 9.19, 9.19, 9.48, 9.72, 10.01, 9.66, 9.71, 10.01, 10.31, 10.31, 10.04, 11.38, 10.26, 10.8, 10.92, 11.16, 11.16, 10.96, 10.88, 10.67, 10.6, 10.37, 10.05, 10.6, 10.58, 10.68, 11.12, 10.68, 10.66, 10.28, 10.73, 10.73, 10.28, 10.28, 11.18, 9.6, 10.28, -0.0, -0.0, -0.0, -0.0, -0.0, -0.0, -0.0, -0.0, -0.0, -0.0, -0.0, -4.8, -0.0, 11.62, 12.96, 12.07, 7.9, 8.22, 12.57, 27.62, 23.65, 13.7, 0.0, 13.41, 14.3, 16.09, 16.94, 16.27, 16.27, 16.41, 16.43, 15.87, 14.79, 13.75, 2.63, -3.14, -3.25, -0.0, 5.31, 10.12, 10.75, 9.89, 9.89, 7.53, 7.53, 7.8, 7.8, 7.8, 7.55, 7.55, 7.83, 7.83, 7.83, 7.57, 7.57, 7.85, 7.85, 7.96, 8.59, 8.87, 8.87, 9.19, 9.19, 9.48, 9.46, 9.72, 9.66, 9.94, 10.01, 10.31, 10.31, 10.31, 10.52, 10.26, 10.26, 10.26, 11.06, 11.06, 10.65, 10.65, 10.88, 10.6, 10.18, 10.32, 10.02, 10.58, 10.56, 10.68, 10.23, 10.22, 10.22, 10.73, 10.73, 10.73, 11.18, 10.41, 9.75, 10.28, 7.27, -0.0, 3.11, -0.0, -0.0, -0.0, -0.0, -0.0, -0.0, -0.0, -0.0, -0.0, -7.59, 11.62, 12.52, 11.2, 11.2, 12.52, 12.0, 20.91, 25.24, 18.78, 13.42, 11.75, 13.67, 15.95, 16.51, 16.54, 16.99, 16.54, 16.09, 16.09, 15.11, 13.96, 8.05, -2.45, -3.96, -0.0, 7.44, 10.73, 10.43, 10.75, 10.75, 7.8, 7.8, 7.55, 7.55, 7.55, 7.55, 7.83, 7.83, 7.83, 7.57, 7.57, 7.85, 7.85, 7.59, 7.87, 8.24, 8.24, 8.58, 9.19, 9.48, 9.48, 9.17, 9.72, 9.66, 9.94, 10.01, 10.31, 10.31, 10.61, 10.61, 10.52, 10.26, 10.26, 10.53, 10.53, 10.53, 10.53, 10.79, 10.38, 10.52, 10.32, 9.83, 9.97, 10.56, 10.12, 10.23, 9.79, 10.22, 10.2, 10.65, 10.62, 11.02, 10.52, 9.97, 10.73, 9.2, 4.4, 3.11, 3.11, -0.0, -0.0, -0.0, -0.0, -0.0, -0.0, -0.0, -0.0, -7.9, -11.18, -12.07, -0.0, 9.8, 14.3, 14.95, 18.42, 21.31, 20.21, 16.39, 15.71, 17.46, 17.43, 16.96, 15.53, 14.86, 15.46, 14.72, 14.75, 14.75, 13.28, 10.01, -0.0, -3.04, -0.0, 5.6, 10.79, 11.6, 11.52, 11.52, 7.55, 7.55, 7.55, 7.55, 7.83, 7.83, 7.83, 7.83, 7.57, 7.85, 7.85, 7.85, 7.85, 7.87, 7.87, 7.87, 8.54, 8.87, 8.87, 9.17, 9.17, 9.17, 9.46, 9.66, 9.94, 10.01, 10.31, 10.31, 10.61, 10.61, 10.91, 10.35, 10.26, 9.86, 10.13, 10.0, 10.0, 10.27, 10.27, 10.52, 10.01, 10.25, 9.97, 9.7, 9.68, 9.68, 9.64, 10.04, 10.04, 10.41, 10.32, 10.32, 10.14, 10.52, 10.28, 9.83, 8.8, 6.95, 6.95, -0.0, -0.0, -0.0, -0.0, -0.0, 4.6, 7.9, -0.0, -7.59, -7.9, -11.18, 12.96, -0.0, 14.84, 16.94, 19.22, 17.43, 17.26, 18.77, 21.0, 19.15, 19.22, 15.78, 12.51, 12.58, 13.28, 12.96, 12.96, 12.52, 12.39, 12.04, 7.19, -0.0, -0.0, -0.0, 11.2, 12.3, 12.87, 12.87, 7.55, 7.55, 7.55, 7.83, 7.57, 7.57, 7.57, 7.57, 7.85, 7.85, 7.85, 7.85, 7.87, 7.87, 7.87, 7.87, 8.54, 8.54, 8.87, 8.87, 9.17, 9.17, 9.46, 9.13, 9.42, 9.37, 9.66, 9.95, 9.95, 10.24, 10.24, 10.52, 10.35, 10.26, 9.86, 10.0, 10.0, 10.27, 10.15, 10.43, 10.01, 10.18, 9.66, 11.06, 9.24, 9.68, 9.92, 9.85, 9.75, 10.41, 10.41, 10.32, 9.75, 10.58, 9.83, 9.83, 9.33, 8.91, 3.11, 2.39, -0.0, -0.0, -0.0, -0.0, 7.59, 7.9, -0.0, -0.0, -4.8, -4.8, -5.2, -0.0, 8.68, 17.58, 20.65, 17.88, 13.15, 16.55, 22.05, 22.13, 18.67, 15.59, 13.23, 12.07, 12.07, 12.71, 13.23, 12.79, 12.79, 12.04, 10.37, 7.44, 6.0, 9.48, 11.6, 12.96, 13.41, 13.41, 7.57, 7.57, 7.57, 7.57, 7.57, 7.57, 7.57, 7.85, 7.85, 7.85, 7.59, 7.87, 7.87, 7.87, 7.87, 8.17, 8.54, 8.24, 8.56, 8.56, 8.87, 9.17, 9.13, 9.13, 9.42, 9.37, 9.66, 9.66, 9.95, 10.24, 10.24, 10.35, 10.35, 9.97, 10.26, 9.7, 10.0, 10.15, 10.15, 9.9, 9.9, 10.18, 9.66, 11.18, 9.68, 9.54, 9.66, 9.55, 9.75, 10.05, 9.97, 9.89, 9.89, 10.14, 9.83, 9.39, 9.39, 8.91, 6.64, 2.39, -0.0, -0.0, -0.0, -0.0, 6.95, 7.59, -0.0, -0.0, -3.39, -0.0, -0.0, -0.0, 6.6, 16.54, 22.6, 21.92, 14.6, 11.87, 16.68, 18.18, 16.48, 15.2, 15.2, 13.7, 9.8, 10.73, 13.15, 13.15, 11.99, 12.45, 10.73, 9.48, 11.16, 11.99, 11.99, 12.3, 13.41, 13.41, 7.57, 7.57, 7.57, 7.57, 7.57, 7.85, 7.85, 7.85, 7.85, 7.59, 7.87, 7.87, 7.87, 7.87, 7.87, 8.17, 7.89, 8.24, 8.54, 8.85, 8.85, 8.85, 8.85, 9.13, 9.42, 9.08, 9.37, 9.66, 9.95, 9.95, 10.24, 10.04, 10.35, 10.35, 10.09, 10.09, 10.0, 9.84, 10.15, 9.6, 9.9, 9.36, 9.36, 9.13, 11.18, 9.49, 10.08, 9.8, 9.4, 9.63, 9.21, 9.46, 9.03, 9.26, 9.26, 9.39, 8.94, 8.48, 6.64, 2.97, -0.0, -0.0, 1.84, -0.0, 4.6, 4.6, 6.95, -0.0, -3.39, -2.71, -0.0, -0.0, 13.86, 15.65, 17.59, 21.83, 21.59, 16.09, 12.27, 11.21, 11.99, 13.41, 12.45, 11.5, 11.12, 12.39, 13.39, 13.56, 13.15, 13.32, 13.15, 12.87, 12.39, 13.15, 12.72, 12.72, 12.58, 13.41, 7.57, 7.57, 7.32, 7.59, 7.85, 7.85, 7.85, 7.59, 7.59, 7.87, 7.87, 7.87, 7.87, 7.87, 7.87, 7.89, 7.89, 8.24, 8.24, 8.53, 8.53, 8.85, 8.85, 8.85, 8.82, 9.08, 9.08, 9.37, 9.66, 9.95, 10.24, 9.67, 9.97, 9.97, 10.09, 10.09, 10.23, 9.84, 10.0, 9.6, 9.77, 9.36, 9.36, 9.03, 8.43, 10.27, 9.55, 9.2, 8.8, 9.21, 8.79, 8.79, 9.03, 8.85, 8.82, 8.94, 8.49, 8.94, 8.0, 2.97, -0.0, -0.0, -0.0, -0.0, 4.4, 4.6, 4.4, -0.0, -3.25, -2.71, -3.68, -0.0, 0.0, 9.8, 14.84, 16.73, 25.89, 25.17, 13.72, 12.58, 14.75, 12.27, 12.39, 12.85, 13.09, 13.72, 14.16, 14.6, 14.64, 14.19, 14.16, 14.11, 13.59, 13.86, 13.41, 12.96, 12.96, 12.96, 6.92, 6.92, 7.59, 7.59, 7.59, 7.59, 7.59, 7.59, 7.87, 7.87, 7.87, 7.6, 7.6, 7.6, 7.6, 7.89, 7.89, 7.89, 7.95, 8.24, 8.53, 8.53, 8.53, 8.82, 8.82, 8.82, 8.82, 9.37, 9.66, 9.66, 9.95, 9.86, 9.97, 9.97, 10.09, 10.09, 10.23, 10.23, 10.0, 10.0, 9.6, 9.42, 9.03, 9.03, 9.42, 9.77, 9.55, 9.21, 8.63, 8.63, 8.63, 8.22, 8.6, 8.6, 8.38, 8.38, 8.05, 8.49, 8.94, 4.0, -0.0, -0.0, 2.06, -0.0, 4.4, 4.4, 4.6, -0.0, -0.0, -2.71, -3.68, -7.9, 0.0, 0.0, 6.6, 16.09, 21.55, 30.67, 26.52, 17.59, 15.02, 14.65, 15.53, 14.65, 13.11, 13.77, 13.86, 14.3, 14.75, 14.19, 14.16, 14.11, 13.59, 13.15, 12.58, 12.71, 12.71, 12.71, 7.19, 7.19, 7.59, 7.59, 7.59, 7.59, 7.59, 7.6, 7.6, 7.6, 7.6, 7.6, 7.6, 7.6, 7.89, 7.89, 7.89, 7.89, 7.61, 8.24, 8.53, 8.82, 8.82, 8.82, 8.82, 8.82, 9.46, 9.46, 9.37, 9.66, 9.95, 10.24, 9.97, 9.97, 10.09, 10.09, 10.23, 10.23, 10.23, 10.0, 10.0, 9.6, 9.42, 9.42, 9.42, 10.17, 9.96, 8.99, 8.79, 8.22, 8.22, 8.22, 8.22, 8.6, 8.06, 8.38, 7.89, 7.81, 8.49, 4.0, -0.0, 2.17, 2.17, -0.0, -0.0, 4.4, 4.6, -0.0, -0.0, -3.53, -3.53, -0.0, 0.0, 0.0, 3.25, 10.75, 17.77, 23.48, 29.09, 23.5, 18.73, 19.07, 17.08, 16.56, 13.81, 13.37, 14.3, 14.16, 13.57, 13.15, 13.15, 11.88, 11.09, 9.48, 11.6, 11.6, 11.6, 11.6, 7.19, 7.19, 6.94, 7.33, 7.33, 7.6, 7.6, 7.6, 7.6, 7.6, 7.6, 7.6, 7.6, 7.89, 7.89, 7.89, 7.89, 7.61, 7.61, 8.24, 8.24, 8.53, 8.82, 9.15, 9.15, 9.46, 9.46, 9.46, 9.77, 9.42, 9.95, 9.95, 9.67, 9.97, 10.26, 10.09, 10.4, 10.23, 10.23, 10.0, 10.0, 9.6, 9.6, 9.42, 9.42, 9.6, 9.6, 9.55, 8.99, 9.21, 8.63, 8.63, 8.0, 8.48, 8.48, 8.06, 8.06, 7.47, 8.05, 3.8, 2.69, 2.83, 2.17, 2.06, 4.8, 4.4, 4.4, 4.2, -0.0, -0.0, -0.0, 10.28, 0.0, 3.96, 7.44, 11.9, 16.09, 18.25, 21.63, 22.37, 21.45, 22.24, 22.57, 17.12, 15.56, 13.8, 14.31, 14.75, 13.99, 11.5, 11.44, 5.6, 5.8, 5.8, 7.78, 7.51, 7.51, 7.51, 6.94, 6.94, 6.94, 7.6, 7.6, 7.6, 7.6, 7.6, 7.6, 7.6, 7.6, 7.6, 7.89, 7.89, 7.89, 7.89, 7.61, 7.61, 7.9, 7.9, 8.24, 8.53, 8.53, 8.84, 9.17, 9.46, 9.46, 9.46, 9.77, 9.42, 9.73, 9.73, 9.67, 9.97, 9.97, 10.09, 10.09, 10.23, 10.23, 10.04, 10.0, 10.0, 10.0, 9.42, 9.42, 9.6, 9.6, 9.2, 9.4, 8.99, 9.21, 8.63, 8.63, 8.0, 8.0, 7.6, 7.6, 6.9, 8.05, 3.6, 2.69, 4.71, 4.96, 4.2, 4.0, 4.6, 4.4, 4.0, -0.0, -0.0, -0.0, 10.73, 11.62, 11.2, 13.41, 13.86, 14.75, 15.99, 16.8, 15.01, 18.72, 25.46, 25.83, 20.79, 17.99, 15.02, 16.05, 16.09, 14.03, 9.8, 3.25, 0.0, 0.0, 0.0, 2.45, 2.37, 2.37, 2.37, 6.94, 6.94, 6.94, 7.6, 7.33, 7.6, 7.6, 7.6, 7.6, 7.6, 7.6, 7.61, 7.61, 7.61, 7.61, 7.61, 7.61, 7.61, 7.9, 7.9, 7.9, 8.21, 8.53, 8.84, 8.84, 9.17, 9.5, 9.5, 9.77, 9.42, 9.73, 9.73, 9.67, 9.67, 9.97, 10.26, 10.09, 10.09, 10.23, 9.84, 9.65, 10.0, 10.0, 10.0, 9.42, 9.42, 9.6, 9.2, 8.99, 9.4, 8.99, 8.4, 8.63, 8.22, 7.6, 7.6, 7.6, 7.47, 8.05, 5.69, 5.69, 6.01, 4.71, 4.0, 4.0, 4.4, 4.2, 4.2, -0.0, -0.0, -0.0, -0.0, 11.62, 12.52, 12.96, 12.72, 14.03, 14.61, 14.39, 10.76, 13.28, 22.91, 25.99, 22.3, 19.34, 16.69, 15.49, 14.75, 9.8, -3.14, -2.45, -2.45, -1.98, -1.98, -1.98, 0.0, 0.0, 0.0, 6.94, 6.94, 6.94, 6.96, 7.33, 7.33, 7.33, 7.6, 7.89, 8.24, 7.61, 7.61, 7.61, 7.61, 7.61, 7.61, 7.61, 7.9, 7.9, 7.9, 7.9, 7.9, 8.21, 8.84, 8.84, 9.17, 9.5, 9.5, 9.16, 9.16, 9.49, 9.14, 9.14, 9.67, 9.67, 9.78, 10.09, 9.7, 10.0, 9.84, 9.84, 9.65, 10.0, 10.0, 9.81, 9.42, 9.2, 9.2, 8.99, 8.99, 8.99, 8.99, 8.4, 8.22, 8.0, 7.81, 7.6, 7.47, 8.05, 7.63, 6.8, 5.69, 4.71, 5.36, 5.36, 4.6, 4.4, 2.97, -0.0, -0.0, -0.0, -0.0, -0.0, 12.07, 12.52, 13.41, 13.86, 13.28, 11.33, 10.02, 12.56, 16.74, 21.1, 20.55, 20.48, 16.01, 15.2, -10.79, -10.37, -7.51, -6.44, -6.21, -7.26, -5.75, -3.53, -1.76, -1.76, -1.76, 6.94, 6.94, 6.96, 6.96, 7.33, 7.33, 7.61, 7.61, 7.61, 7.95, 7.95, 7.95, 7.95, 7.61, 7.61, 7.61, 7.61, 7.9, 7.9, 7.9, 7.9, 8.21, 8.21, 8.21, 8.84, 8.84, 8.84, 9.16, 9.16, 9.16, 9.49, 9.14, 9.14, 9.46, 9.46, 9.46, 9.4, 9.7, 9.7, 9.84, 9.84, 9.84, 9.65, 9.65, 9.81, 9.81, 9.2, 9.2, 9.2, 8.99, 8.6, 8.6, 8.4, 8.0, 8.22, 7.81, 8.17, 7.94, 8.05, 8.05, 8.05, 6.32, 5.69, 6.01, 5.1, 4.0, -0.0, -0.0, -0.0, -0.0, 3.11, -0.0, -0.0, 12.07, 12.52, 12.96, 13.41, 11.16, 10.12, 9.22, 11.06, 10.89, 12.07, 16.92, 21.45, 18.79, -8.93, -9.2, -10.4, -10.01, -8.53, -7.26, -6.7, -6.42, -4.4, -2.97, -2.97, -2.97, 6.94, 6.94, 6.96, 6.96, 6.96, 7.33, 7.61, 7.61, 7.61, 7.95, 7.95, 7.95, 7.95, 7.95, 7.95, 7.61, 7.9, 7.9, 7.9, 7.9, 8.21, 8.21, 8.21, 8.21, 8.21, 8.84, 8.84, 9.16, 9.16, 9.16, 9.14, 9.14, 9.14, 8.79, 9.09, 9.09, 9.4, 9.4, 9.7, 9.7, 9.84, 9.84, 9.84, 9.65, 9.65, 9.81, 9.42, 9.2, 8.82, 8.99, 8.99, 8.6, 8.21, 8.0, 8.0, 7.81, 8.17, 7.63, 7.94, 8.05, 8.05, 7.21, 6.32, 5.69, 4.83, 4.0, -0.0, -0.0, -0.0, 3.11, 3.11, 3.11, 6.95, 11.18, 12.07, 12.52, 12.96, -0.0, 4.38, 8.18, 7.59, 8.18, 9.09, 14.82, 25.17, 15.62, -7.36, -8.73, -8.73, -8.94, -8.22, -7.26, -7.9, -6.7, -4.6, -3.11, -3.11, -3.11, 6.94, 6.7, 6.96, 6.96, 6.96, 7.33, 7.61, 7.61, 7.61, 7.95, 7.95, 7.95, 7.95, 7.95, 7.95, 8.24, 7.9, 7.9, 7.9, 7.9, 8.21, 8.21, 8.21, 8.21, 8.21, 8.53, 8.53, 8.53, 9.16, 8.82, 9.14, 9.14, 8.79, 8.86, 8.86, 8.86, 9.19, 9.19, 9.19, 9.52, 9.52, 9.84, 9.84, 9.84, 9.65, 9.43, 9.42, 9.2, 9.2, 8.82, 8.99, 8.6, 8.6, 7.58, 8.0, 7.6, 7.81, 7.74, 7.63, 8.05, 8.05, 7.21, 6.32, 6.32, 5.37, 3.97, -0.0, -0.0, -0.0, -0.0, -0.0, 3.25, 4.6, -0.0, 11.18, 11.62, 12.52, -0.0, -0.0, -0.0, 3.47, 7.36, 7.36, 15.19, 27.27, 19.77, 0.0, -6.21, -5.52, -5.52, -5.0, -5.0, -6.97, -7.9, -5.52, -3.65, -3.65, -3.65, 6.96, 6.96, 6.96, 6.96, 6.96, 6.96, 7.61, 7.61, 7.61, 7.95, 7.95, 7.95, 7.95, 8.24, 8.24, 8.24, 8.24, 7.9, 7.9, 7.9, 8.21, 8.21, 8.21, 8.53, 8.53, 8.53, 8.53, 8.22, 8.54, 8.54, 8.87, 8.53, 8.53, 8.86, 8.86, 8.86, 9.19, 9.19, 9.19, 9.52, 9.52, 9.52, 9.52, 9.84, 9.65, 9.43, 9.05, 9.2, 9.2, 8.82, 8.55, 8.6, 8.6, 7.82, 8.0, 7.6, 7.95, 7.81, 7.97, 8.05, 7.6, 7.6, 7.21, 6.32, 6.32, 5.37, -0.0, -6.64, -9.83, -9.39, -0.0, 10.28, 10.28, 7.27, 10.28, 11.18, 12.07, -12.52, -9.17, -0.0, -0.0, 6.2, 10.43, 26.95, 27.72, 19.55, 6.14, -2.13, 0.0, -1.69, -2.19, -4.15, -5.98, -8.22, -7.59, -6.17, -6.17, -6.17, 6.96, 6.96, 6.96, 6.96, 6.96, 6.96, 7.24, 7.61, 7.61, 7.95, 8.24, 8.24, 8.24, 8.24, 8.24, 8.24, 8.24, 8.24, 7.9, 7.9, 8.21, 8.21, 8.53, 8.53, 8.22, 8.22, 8.22, 8.54, 8.54, 8.54, 8.21, 8.53, 8.53, 8.86, 8.86, 8.86, 9.19, 9.19, 9.19, 9.19, 9.52, 9.52, 9.52, 9.52, 9.65, 9.65, 9.43, 8.79, 9.2, 8.82, 8.55, 8.18, 8.21, 7.82, 7.58, 7.6, 7.6, 7.81, 7.74, 7.94, 7.6, 7.6, 7.6, 7.37, 7.21, 7.21, 5.37, -5.37, -10.28, -10.28, -10.28, 0.0, 0.0, 10.28, -0.0, 10.73, 0.0, -12.07, -12.52, -8.85, -0.0, 3.36, 16.39, 25.26, 26.66, 18.78, 3.69, -2.54, -2.37, 0.0, -1.84, -3.53, -5.75, -7.9, -8.58, -8.23, -8.23, -8.23, 6.96, 6.96, 6.96, 6.96, 6.96, 6.96, 6.97, 7.33, 7.61, 7.61, 8.24, 8.24, 8.24, 8.24, 8.24, 8.24, 8.24, 8.24, 7.9, 7.9, 8.21, 8.21, 8.21, 8.22, 8.22, 8.22, 8.54, 8.54, 8.21, 8.21, 8.21, 8.53, 8.53, 8.86, 8.86, 8.86, 8.94, 8.94, 9.19, 9.19, 9.19, 9.52, 9.52, 9.52, 9.3, 9.3, 9.43, 9.05, 8.79, 9.2, 8.82, 8.55, 8.21, 8.21, 7.58, 7.6, 7.6, 7.81, 7.74, 7.63, 7.89, 7.6, 7.6, 7.6, 8.05, 7.63, 7.2, 8.05, -10.28, -10.18, -9.6, -7.59, 0.0, 10.28, -0.0, -0.0, 0.0, -8.22, -12.52, -12.52, -8.85, -0.0, 14.66, 20.09, 24.39, 12.64, -6.2, -4.8, -3.98, -4.15, -5.0, -4.58, -5.98, -7.9, -7.9, -9.83, -9.83, -9.83, 6.96, 6.96, 6.96, 6.96, 6.96, 6.96, 6.97, 6.97, 7.33, 7.33, 7.9, 8.24, 8.24, 8.24, 8.24, 8.24, 7.93, 7.93, 7.61, 7.61, 7.91, 7.91, 7.91, 8.22, 8.22, 8.22, 8.21, 8.21, 8.21, 8.21, 8.53, 8.53, 8.53, 8.86, 8.86, 8.59, 8.94, 8.94, 9.19, 9.19, 9.19, 9.19, 9.14, 8.93, 8.93, 8.93, 8.68, 9.05, 9.05, 8.79, 8.82, 8.82, 7.81, 8.21, 7.82, 7.58, 7.6, 7.37, 7.4, 7.63, 7.63, 7.89, 8.05, 8.05, 8.05, 8.05, 8.49, 8.49, 8.49, -9.6, -9.6, -9.6, -7.59, -10.28, -0.0, -0.0, 10.28, 0.0, -8.22, -10.8, -12.52, 6.4, 12.64, 18.02, 26.56, 24.59, -14.39, -8.22, -6.71, -6.98, -6.45, -5.98, -5.2, -8.22, -11.18, -5.7, -5.7, -5.7, 6.96, 6.96, 6.96, 6.96, 6.96, 6.96, 6.97, 6.97, 6.97, 7.33, 7.33, 8.24, 8.24, 8.24, 7.93, 7.93, 7.61, 7.61, 7.61, 7.91, 7.91, 7.91, 7.91, 8.22, 8.22, 7.9, 8.21, 8.21, 8.21, 8.53, 8.53, 8.53, 8.53, 8.24, 8.24, 8.24, 8.59, 8.94, 8.94, 9.19, 9.19, 8.82, 8.82, 8.93, 8.93, 8.93, 8.68, 9.05, 9.05, 9.05, 8.82, 8.43, 7.81, 8.21, 7.82, 7.58, 7.6, 7.37, 7.81, 7.4, 7.63, 7.89, 7.89, 7.89, 8.05, 8.49, 8.49, 8.49, 8.49, -7.27, -9.2, -9.6, -7.27, -9.83, -9.83, 9.83, 9.83, 0.0, 0.0, -8.22, -12.96, 13.86, 15.65, 19.22, 25.57, 27.72, 0.0, -12.65, -6.2, -5.0, -5.2, -5.2, 12.07, 3.68, -0.0, -2.19, -2.19, -2.19, 6.7, 6.7, 6.96, 6.96, 6.96, 6.96, 6.97, 6.97, 6.97, 6.97, 7.33, 7.61, 7.93, 7.93, 7.93, 7.93, 7.61, 7.61, 7.61, 7.91, 7.91, 7.91, 7.91, 7.9, 7.9, 7.9, 8.21, 8.21, 8.21, 8.19, 8.19, 8.19, 8.19, 8.24, 8.24, 8.24, 8.24, 8.59, 8.94, 9.19, 9.19, 8.82, 8.58, 8.93, 8.93, 8.68, 8.68, 9.05, 9.05, 9.05, 8.67, 8.43, 8.43, 7.81, 7.82, 7.58, 7.2, 7.6, 7.37, 7.81, 7.63, 7.63, 7.63, 8.33, 8.33, 8.33, 8.67, 8.48, 8.0, 0.0, -4.6, -4.6, -6.95, -6.64, -6.64, 0.0, 0.0, 4.2, 0.0, -8.22, -12.52, 0.0, 10.43, 17.1, 23.69, 27.72, 19.08, 0.0, 0.0, 2.82, 6.45, 11.62, 6.7, -0.0, -0.0, -1.44, -1.44, -1.44, 6.29, 6.29, 6.56, 6.96, 6.96, 6.7, 6.97, 6.97, 6.97, 6.97, 6.97, 7.61, 7.61, 7.93, 7.93, 7.93, 7.93, 7.61, 7.61, 7.91, 7.91, 7.91, 7.6, 7.6, 7.9, 7.9, 7.9, 8.21, 7.88, 8.19, 8.19, 8.19, 8.19, 8.5, 8.24, 8.24, 8.24, 8.24, 8.58, 8.82, 8.82, 8.82, 8.58, 8.93, 8.93, 8.68, 8.68, 8.68, 9.05, 9.05, 8.67, 8.43, 8.43, 8.05, 7.82, 7.82, 7.2, 7.6, 7.37, 7.81, 7.6, 7.6, 8.06, 8.06, 7.89, 8.33, 8.77, 8.67, 7.44, 6.32, 0.0, -6.2, -7.27, -4.2, 0.0, 0.0, 0.0, 0.0, 10.28, 11.62, 12.52, 0.0, 8.18, 15.36, 22.62, 27.72, 19.67, 14.39, 7.93, 9.48, 10.73, 12.07, 5.6, -0.0, -0.0, -1.5, -1.5, -1.5, 6.29, 6.29, 6.56, 6.56, 6.96, 6.7, 6.97, 6.97, 6.97, 6.97, 6.97, 7.26, 7.61, 7.61, 7.93, 7.93, 7.93, 7.61, 7.61, 7.6, 7.6, 7.6, 7.6, 7.6, 7.9, 7.9, 7.9, 8.21, 7.88, 7.88, 8.19, 8.19, 8.19, 8.5, 8.5, 8.24, 8.24, 8.24, 8.82, 8.82, 8.82, 8.58, 8.58, 8.93, 8.93, 8.68, 8.68, 8.68, 9.05, 9.05, 8.67, 8.63, 8.43, 8.05, 8.05, 7.82, 7.82, 7.2, 7.6, 7.37, 7.81, 7.81, 7.6, 8.06, 8.06, 7.89, 8.3, 8.3, 8.0, 7.44, 2.97, -3.53, -5.7, -4.8, 0.0, 0.0, 0.0, 6.95, 9.2, 10.73, 12.07, 0.0, 7.93, 13.42, 20.38, 27.72, 21.9, 16.09, 14.3, 13.67, 12.35, 12.52, 9.66, 2.45, -0.0, -1.5, -1.5, -1.5, 6.56, 6.56, 6.56, 6.56, 6.56, 6.7, 6.97, 6.97, 6.97, 6.97, 7.26, 7.26, 7.26, 7.61, 7.61, 7.61, 7.93, 7.93, 7.61, 7.6, 7.6, 7.6, 7.6, 7.6, 7.9, 7.9, 7.9, 8.21, 7.88, 7.88, 8.19, 8.19, 8.19, 8.5, 8.5, 8.5, 8.5, 8.5, 8.82, 8.82, 8.58, 8.58, 8.58, 8.93, 8.93, 8.68, 8.68, 9.05, 9.05, 8.67, 8.67, 8.3, 8.63, 8.05, 8.05, 7.44, 7.82, 7.82, 7.58, 7.6, 7.37, 7.37, 7.81, 7.81, 7.6, 7.6, 8.3, 8.3, 8.3, 8.3, 6.64, 0.0, 0.0, 0.0, 0.0, 0.0, 4.4, 4.4, 7.27, 0.0, 0.0, 0.0, 7.69, 11.8, 18.21, 25.03, 23.86, 18.21, 15.09, 14.47, 13.53, 12.89, 12.3, 7.51, -0.0, -2.06, -2.06, -2.06, 6.56, 6.56, 6.56, 6.56, 6.56, 6.7, 6.97, 6.97, 6.97, 6.97, 7.26, 7.26, 7.26, 7.61, 7.61, 7.61, 7.93, 7.93, 7.61, 7.6, 7.6, 7.6, 7.6, 7.6, 7.9, 7.9, 7.9, 8.21, 7.88, 7.88, 8.19, 8.19, 8.19, 8.5, 8.5, 8.5, 8.5, 8.5, 8.82, 8.82, 8.58, 8.58, 8.58, 8.93, 8.93, 8.68, 8.68, 9.05, 9.05, 8.67, 8.67, 8.3, 8.63, 8.05, 8.05, 7.44, 7.82, 7.82, 7.58, 7.6, 7.37, 7.37, 7.81, 7.81, 7.6, 7.6, 8.3, 8.3, 8.3, 8.3, 6.64, 0.0, 0.0, 0.0, 0.0, 0.0, 4.4, 4.4, 7.27, 0.0, 0.0, 5.6, 7.44, 11.44, 15.61, 20.12, 23.63, 20.54, 18.1, 14.79, 13.8, 12.79, 12.39, 11.64, 7.51, -0.0, -0.0, -0.0]}, {"header": {"dx": 0.06612293990616946, "dy": 0.0552356325346848, "nx": 98, "ny": 59, "la1": 35.046912555036876, "la2": 31.78801023549047, "lo1": -121.43107172385933, "lo2": -114.95102361305473, "refTime": "2026041606", "parameterCategory": 1, "parameterNumber": 3}, "data": [-15.61, -15.61, -15.44, -15.06, -14.6, -13.46, -12.63, -12.35, -12.07, -11.52, -10.58, -9.77, -11.09, -9.17, -12.07, -11.62, -11.62, -10.84, -11.28, -12.14, -11.6, -10.79, -11.03, -11.18, -11.18, -11.62, -11.45, -11.87, -10.04, -10.8, -11.2, -10.37, -8.85, -5.0, -3.82, -1.62, -2.97, -2.58, -2.97, -2.02, -5.9, -9.58, -9.67, -9.16, -8.23, -8.86, -11.16, -10.35, -1.9, 12.87, 11.64, 11.2, 11.44, 11.77, 11.69, 10.47, 9.91, 9.39, 7.97, 7.73, 8.18, 7.92, 9.22, 9.5, 9.21, 9.06, 8.14, 7.74, 8.22, 8.7, 8.43, 8.4, 8.68, 8.29, 9.39, 9.61, 6.6, 5.02, 3.38, 2.72, 3.93, 13.41, 9.17, 8.85, 8.53, 11.62, 8.53, 0.0, -2.19, -3.53, -5.6, -7.11, -6.88, -6.6, -2.43, 0.0, 1.83, 1.29, -15.61, -15.61, -15.61, -15.06, -14.51, -14.04, -13.1, -12.6, -12.0, -11.45, -10.9, -11.09, -10.37, -6.94, -5.8, 0.0, -10.73, -11.45, -11.71, -10.79, -11.99, -11.6, -10.79, -11.6, -10.73, -10.0, -10.4, -11.45, -11.45, -12.14, -13.88, -12.39, -10.01, -4.4, -2.99, -2.83, -2.54, -3.14, -3.7, -3.25, -7.51, -11.5, -10.99, -10.91, -12.11, -13.41, -12.67, -4.87, 13.59, 13.56, 12.0, 12.16, 11.44, 11.36, 11.3, 11.63, 10.52, 9.12, 8.65, 7.73, 8.18, 8.68, 8.94, 9.27, 9.27, 8.78, 8.58, 8.14, 8.22, 8.7, 8.21, 8.11, 7.2, 8.06, 8.06, 7.59, 6.6, 5.02, 3.38, 2.72, 3.93, 13.41, 9.17, 8.85, 8.53, 11.62, 8.53, 0.0, -2.19, -3.53, -5.6, -7.11, -6.88, -6.6, -2.43, 0.0, 1.83, 1.29, -15.61, -15.61, -15.61, -15.06, -14.88, -14.31, -13.46, -12.87, -12.24, -11.39, -11.09, -9.56, -10.79, -8.53, -6.45, -5.2, -8.22, -11.62, -12.07, -12.58, -11.03, -10.73, -10.73, -11.99, -13.86, -10.18, -7.59, -4.8, -10.0, -11.62, -14.75, -15.2, -14.3, -10.6, -5.1, -4.0, -3.8, -4.0, -5.21, -6.16, -8.53, -9.92, -12.16, -14.13, -14.08, -12.33, -7.19, 10.73, 12.81, 12.37, 12.37, 12.16, 12.16, 11.44, 11.52, 11.87, 10.17, 9.12, 8.4, 7.73, 8.18, 8.41, 9.27, 9.27, 9.27, 9.06, 8.85, 9.54, 9.54, 9.35, 8.28, 7.2, 6.47, 6.17, 5.81, 4.66, 3.69, 4.53, 2.81, 1.72, 2.56, 6.0, 12.96, 5.4, 6.45, 10.4, 10.6, 5.0, 0.0, -4.39, -6.95, -8.18, -8.85, -6.6, -2.81, 0.0, 0.0, 1.38, -15.61, -15.61, -15.61, -15.06, -15.06, -14.51, -14.04, -13.46, -12.6, -11.64, -11.32, -10.41, -10.61, -9.3, -8.22, -6.45, -3.68, -8.53, -11.62, -12.07, -11.02, -10.84, -9.58, -10.0, -10.8, -12.3, -10.28, -6.95, -4.4, -11.18, -11.91, -13.72, -15.49, -15.65, -11.2, -7.59, -7.27, -5.95, -6.83, -8.22, -9.23, -10.86, -11.25, -9.23, -8.37, -4.55, 6.2, 10.86, 11.2, 11.2, 11.8, 11.54, 11.2, 11.8, 11.64, 11.03, 9.22, 8.68, 7.73, 6.78, 7.43, 8.94, 9.57, 9.8, 9.27, 9.34, 10.52, 10.11, 11.86, 11.28, 9.37, 7.67, 6.16, 5.04, 2.02, -1.96, -1.47, 0.0, 1.59, 0.86, 1.21, 4.98, 5.8, -0.0, 2.71, 5.2, 5.4, 0.0, -2.71, -5.73, -8.06, -6.6, -6.2, 0.0, 0.0, 0.0, 1.61, 4.39, -15.61, -15.61, -15.61, -15.06, -15.06, -14.88, -14.31, -13.82, -12.52, -11.88, -10.87, -10.61, -10.24, -9.3, -8.94, -8.22, -8.22, -6.45, -11.03, -12.07, -12.71, -11.2, -10.4, -9.3, -8.24, -9.66, -10.41, -12.07, -10.0, -9.75, -10.73, -11.09, -11.21, -12.35, -14.19, -13.39, -13.2, -11.09, -10.28, -10.91, -10.28, -9.17, -6.65, 0.0, 0.0, 4.38, 7.58, 8.58, 9.6, 10.75, 10.43, 11.64, 11.64, 12.51, 11.8, 10.43, 8.46, 7.92, 7.43, 7.21, 6.85, 8.51, 9.8, 10.43, 10.97, 11.7, 11.36, 11.7, 12.96, 13.69, 11.34, 9.32, 8.9, 7.8, 4.5, -1.83, -7.69, -4.11, -0.99, 0.84, 1.61, 2.54, 0.0, -5.0, -2.19, -10.4, -5.4, -5.2, -6.0, -7.66, -7.36, 0.0, 6.94, 3.14, 2.54, 4.24, 7.19, 8.01, -15.88, -15.61, -15.61, -15.06, -15.06, -14.88, -14.51, -13.74, -12.87, -12.24, -10.87, -10.02, -9.82, -8.22, -7.9, -7.9, -7.9, -8.22, -10.0, -11.46, -11.53, -11.45, -11.99, -10.47, -10.01, -10.35, -10.35, -11.84, -12.96, -11.71, -9.54, -10.28, -10.28, -10.28, -12.04, -13.72, -12.72, -10.01, -9.92, -9.04, -10.19, -10.12, -2.28, 0.0, 0.0, 2.89, 7.82, 9.31, 9.31, 9.16, 9.8, 10.65, 11.28, 11.64, 10.43, 8.85, 7.16, 7.16, 7.06, 6.4, 7.13, 9.48, 11.1, 12.0, 12.03, 12.63, 12.33, 11.7, 12.01, 12.27, 11.61, 10.2, 9.96, 9.12, 7.8, 4.86, -1.9, -6.67, -2.13, 1.17, 0.0, -2.28, -4.15, -11.03, -9.3, -11.62, -9.82, -7.89, -7.98, -8.78, -7.19, 9.48, 10.73, 10.37, 11.12, 10.47, 9.17, 8.85, -15.88, -15.61, -15.61, -15.06, -15.06, -14.88, -14.51, -14.31, -13.46, -11.93, -10.51, -9.48, -9.46, -6.71, -5.4, -5.95, -7.9, -8.22, -9.67, -10.27, -11.02, -11.62, -10.0, -10.18, -10.61, -10.09, -10.88, -11.78, -12.42, -10.62, -11.18, -9.83, -9.54, -8.91, -11.0, -12.81, -12.2, -11.72, -8.82, -8.55, -10.41, -9.17, -8.58, -6.8, 0.0, 9.73, 12.22, 10.75, 8.31, 7.69, 8.94, 10.65, 10.86, 10.43, 8.31, 7.34, 6.4, 6.4, 5.31, 5.73, 7.11, 9.48, 12.37, 12.87, 13.23, 12.36, 10.61, 9.88, 8.68, 8.0, 7.64, 7.3, 6.47, 5.23, 5.37, 5.37, 2.98, 0.0, 0.0, 0.0, -1.91, -7.44, -7.85, -10.04, -11.91, -12.27, -12.17, -10.58, -9.06, -11.16, -13.41, 13.41, 13.41, 13.23, 12.33, 9.96, 8.85, 7.73, -15.49, -15.49, -15.23, -15.06, -15.06, -14.88, -14.51, -13.94, -13.38, -12.16, -10.51, -9.88, -9.46, -8.22, -6.21, -3.98, -5.98, -7.73, -8.22, -8.22, 0.0, 0.0, -2.93, -12.07, -10.32, -10.38, -10.7, -10.18, -10.4, -10.27, -10.6, -11.62, -11.18, -9.6, -10.17, -10.68, -10.32, -10.0, -9.77, -9.67, 0.0, 0.0, -5.6, 0.0, 14.75, 15.78, 13.58, 11.38, 8.85, 7.93, 8.85, 10.3, 9.8, 9.02, 8.05, 8.05, 6.2, 6.2, 4.24, 5.27, 5.99, 10.47, 13.03, 13.58, 13.1, 11.19, 9.74, 5.81, 1.83, 1.42, 1.27, 1.31, 1.07, 0.0, 0.0, 0.82, 2.64, 3.68, 3.14, 1.02, 0.0, -7.18, -9.53, -10.73, -11.39, -12.38, -11.58, -10.38, -9.69, -12.04, -12.96, 12.96, 13.41, 13.72, 12.33, 8.85, 7.73, 6.45, -15.33, -15.33, -15.23, -15.06, -15.06, -14.88, -14.51, -14.13, -13.58, -12.37, -11.16, -10.8, -11.6, -11.2, -9.66, -8.53, -8.53, -8.53, -8.22, -6.2, 0.0, 2.28, 1.44, -1.98, -11.21, -12.35, -8.63, -8.34, -8.58, -9.6, -10.22, -11.62, -12.47, -11.88, -10.68, -9.66, -9.86, -10.52, -11.62, 0.0, 12.52, 12.52, -0.0, 9.48, 14.3, 13.86, 15.27, 12.01, 10.3, 10.75, 10.43, 9.96, 9.48, 8.05, 8.05, 6.2, 6.2, 4.1, 3.96, 4.24, 7.82, 13.03, 13.03, 13.02, 12.36, 9.0, 7.21, 4.23, 0.0, -1.47, -1.34, -1.1, -2.19, -1.83, -1.83, -1.1, 0.0, 0.0, 0.89, 0.8, 0.75, -4.58, -12.13, -12.39, -11.39, -11.39, -11.38, -10.23, -10.61, -12.3, 0.0, 12.79, 12.96, 13.41, 11.99, 8.01, 6.76, 6.7, -14.95, -15.33, -15.06, -15.06, -15.06, -15.06, -14.51, -13.94, -13.48, -12.37, -11.99, -11.72, -11.33, -11.95, -12.1, -11.55, -11.6, -11.97, -11.45, -10.84, -10.41, -10.27, -8.93, -7.26, -8.94, -10.84, -9.54, -7.87, -10.04, -11.13, -11.62, -11.18, -9.83, -10.73, -11.62, -11.46, -10.18, 0.0, 8.22, 12.52, 0.0, -0.0, -0.0, 8.22, 8.22, 12.96, 13.41, 13.57, 12.52, 13.02, 12.0, 11.2, 10.12, 8.05, 6.88, 5.02, 3.36, 1.33, 1.39, 3.96, 11.52, 14.36, 15.59, 13.97, 11.38, 10.13, 6.64, 4.23, 0.0, -5.02, -5.48, -5.26, -3.9, -4.15, -4.03, -4.08, -4.98, -4.81, -3.32, -1.67, 0.0, 0.92, -11.7, -15.43, -12.98, -11.99, -11.75, -12.03, -12.72, -12.79, -4.1, 11.2, 12.52, 12.96, 11.12, 6.94, 4.93, 5.6, -14.95, -14.95, -15.06, -15.06, -15.06, -14.79, -14.51, -13.58, -13.48, -12.93, -12.27, -12.37, -12.17, -12.38, -12.18, -12.45, -13.7, -13.51, -14.27, -14.57, -15.57, -15.55, -14.5, -12.14, -12.46, -10.73, -10.28, -9.83, -9.13, -9.54, -10.28, -9.11, -0.0, -6.95, -9.54, -11.4, -10.4, -0.0, -0.0, -12.52, -12.96, -12.52, 0.0, 0.0, 0.0, 8.22, 12.07, 12.14, 12.58, 12.45, 12.27, 12.36, 9.35, 7.98, 6.34, 4.01, 1.83, 0.0, 0.0, 9.48, 16.32, 16.6, 15.11, 14.39, 14.07, 13.46, 12.66, 9.48, 0.0, -6.21, -8.31, -7.92, -6.74, -6.19, -5.85, -5.16, -5.2, -7.27, -8.58, -6.29, -3.18, 0.0, 3.9, -16.12, -15.78, -13.7, -14.11, -14.11, -13.28, -9.48, 0.0, 8.85, 12.52, 12.52, 8.53, 4.1, 4.1, 4.1, -14.95, -14.95, -15.06, -15.06, -15.06, -15.06, -14.51, -13.58, -13.3, -12.93, -12.56, -12.65, -12.82, -11.88, -10.65, -10.59, -9.86, -10.8, -11.95, -13.15, -13.64, -14.47, -14.23, -15.65, -13.41, -12.52, -0.0, 7.07, 7.59, -4.8, -5.0, -0.0, 4.8, 4.6, -0.0, -6.44, -6.44, -5.2, -5.2, -5.4, -0.0, -0.0, 11.62, 0.0, 7.59, 9.75, 12.07, 12.52, 12.58, 11.53, 10.12, 9.92, 8.4, 7.92, 5.28, 4.66, 4.36, 2.66, 0.0, 13.86, 17.79, 17.68, 16.19, 15.78, 15.83, 18.24, 18.86, 16.12, 10.35, 0.0, -5.48, -7.69, -7.82, -7.54, -5.8, -4.36, -4.58, -8.85, -9.77, -7.0, -3.16, 2.65, 4.88, 3.51, -5.94, -13.59, -12.33, -12.16, -8.85, 0.0, 0.0, 8.22, 10.4, 11.62, 3.96, 2.54, 2.54, 3.14, -14.95, -14.95, -14.68, -15.06, -15.06, -15.06, -14.51, -13.58, -13.3, -12.93, -12.93, -12.93, -12.73, -12.16, -11.33, -9.78, -9.17, -9.17, -10.38, -10.25, -9.06, -5.04, 0.0, 0.0, 0.0, 0.0, 0.0, 9.17, 6.21, 1.09, -2.19, -0.0, 2.1, 2.02, 2.49, -0.0, -0.0, -0.0, -0.0, -0.0, 3.68, 3.68, 7.9, 6.95, 9.2, 10.18, 11.03, 12.07, 11.6, 6.0, 0.0, 0.0, 0.0, 0.0, 0.0, 0.0, 3.95, 7.21, 0.0, 12.07, 16.09, 16.22, 17.1, 16.09, 18.33, 20.03, 21.56, 21.88, 21.35, 22.39, 17.88, 0.0, -6.4, -2.82, -3.65, -4.58, -2.89, 0.0, 0.0, 0.0, 0.0, 0.0, 0.0, 0.0, 2.79, 0.0, -3.86, -6.64, -3.16, 0.0, 2.72, 0.0, 11.18, 0.0, 0.0, 0.0, 0.0, 0.0, -14.57, -14.95, -14.68, -14.68, -15.06, -14.68, -14.51, -13.58, -13.3, -12.93, -12.93, -12.93, -12.73, -12.22, -11.87, -10.09, -9.13, -8.49, -7.69, -7.44, -5.99, -2.64, -1.63, -0.82, -1.58, -1.89, -2.72, -7.69, -0.0, -0.0, -0.0, -0.0, -0.0, -0.0, -0.0, 3.11, 3.11, -0.0, -0.0, -0.0, -0.0, 3.25, 4.8, 7.27, 9.33, 9.75, 8.4, 7.9, 0.0, 0.0, 0.0, -5.4, -8.53, -5.4, -5.6, -3.96, 0.0, 0.0, 0.0, 13.86, 12.74, 15.65, 16.54, 16.99, 16.46, 16.54, 17.43, 18.52, 19.19, 17.8, 20.32, 21.2, 18.33, 9.2, 0.0, 0.0, 0.0, 0.0, 0.0, 2.79, 0.0, -4.54, -4.5, -2.98, 0.0, 2.05, 0.0, 0.0, 0.0, 3.24, 2.35, 0.0, -11.18, -12.52, -8.85, -5.8, -9.17, 0.0, -14.4, -14.95, -14.68, -14.68, -14.68, -14.68, -14.13, -13.58, -13.21, -12.93, -12.93, -12.73, -12.45, -12.45, -11.87, -10.69, -9.78, -9.4, -9.32, -8.78, -7.03, -6.2, -4.95, -4.11, -4.11, -3.71, -4.38, -5.15, -8.05, -13.41, -0.0, -0.0, -0.0, -0.0, 4.6, 9.2, 9.6, 9.83, 0.0, -0.0, 4.6, -0.0, -0.0, 8.8, 9.33, 9.33, 8.8, 9.2, 7.59, -0.0, 0.0, -7.9, 0.0, 0.0, 0.0, 0.0, -10.4, -7.13, 0.0, 16.91, 12.04, 12.3, 13.15, 13.57, 13.99, 14.42, 16.54, 12.01, 0.0, 9.0, 20.56, 21.46, 20.56, 12.14, 9.48, 9.92, 10.46, 5.65, 2.4, 0.0, 0.0, -5.37, -6.16, -5.28, -8.1, -4.81, 0.0, 0.0, 2.65, 3.24, 2.79, 0.0, -10.4, -12.52, 0.0, -9.17, 0.0, 0.0, -14.4, -14.4, -14.51, -14.51, -14.51, -14.51, -14.13, -14.13, -13.58, -13.01, -12.93, -12.45, -12.45, -12.09, -11.52, -10.94, -10.06, -9.8, -9.4, -8.95, -8.45, -6.57, -5.93, -5.81, -5.25, -4.44, -3.91, -4.66, -6.0, -6.65, -7.44, -12.07, -0.0, -0.0, 7.27, 8.67, 10.28, 10.28, 10.73, 7.27, 6.64, 9.39, 10.28, 9.83, 8.8, 7.81, 9.33, 9.2, 10.28, 10.28, 0.0, 0.0, 8.22, 7.59, 6.64, 0.0, -4.6, -3.68, 4.66, 13.02, 12.07, 11.62, 11.62, 12.07, 12.07, 12.96, 0.0, -15.2, 0.0, 0.0, -0.0, -0.0, 0.0, 16.79, 12.65, 16.39, 15.38, 13.28, 10.17, 9.43, 11.0, 8.2, 0.0, -4.66, -10.04, -10.6, -8.38, -2.54, 0.0, 3.36, 2.57, 0.0, 0.0, 0.0, 0.0, 0.0, 0.0, 0.0, -14.4, -14.4, -14.4, -14.13, -14.4, -14.4, -14.4, -14.13, -13.58, -13.21, -13.01, -12.65, -12.45, -11.87, -11.28, -10.36, -10.06, -9.17, -9.48, -8.29, -7.79, -6.57, -5.45, -4.58, -3.47, -2.81, -3.04, -3.2, -4.66, -5.14, -6.51, -5.8, -6.2, 0.0, 8.94, 9.39, 9.54, 10.73, 10.28, 9.83, 9.83, 8.94, 10.28, 8.94, 9.83, 9.33, 9.75, 10.28, 10.28, 10.28, 10.28, 10.73, 10.0, 7.59, 7.59, 4.6, 0.0, 3.39, 10.04, 12.3, 11.87, 10.0, 7.59, 4.8, 9.6, 9.2, 0.0, -10.4, -13.86, -12.33, -18.23, -15.72, -15.99, -14.86, 17.88, 18.78, 17.85, 16.59, 16.37, 16.79, 16.96, 16.19, 16.99, 15.2, -10.12, -11.62, -11.45, -11.6, 0.0, 2.72, 3.58, 3.68, 2.45, 2.54, 2.13, 2.37, 3.96, 3.96, -14.4, -14.4, -14.4, -14.4, -14.4, -14.4, -14.4, -14.13, -14.13, -13.58, -13.01, -12.65, -12.09, -11.8, -11.23, -10.36, -10.09, -9.48, -8.85, -7.67, -6.67, -5.71, -4.86, -3.41, -1.33, -1.36, -2.15, -2.98, -3.87, -5.06, -5.81, -6.42, -6.63, -4.15, 4.8, 10.28, 9.83, 10.28, 9.83, 0.0, 0.0, 0.0, 0.0, 10.28, 10.28, 10.28, 10.73, 10.28, 10.28, 10.28, 9.2, 9.2, 9.2, 8.55, 8.55, 7.27, 5.7, 8.93, 9.3, 7.9, 8.53, 8.22, 3.39, 4.8, 10.73, 9.33, 9.39, -7.27, -10.8, -15.65, -17.99, -16.87, -15.74, -11.9, 5.51, 16.66, 16.96, 15.02, 14.8, 15.28, 13.61, 14.3, 12.64, 0.0, -8.85, -11.87, -12.96, -12.96, 0.0, 3.47, 6.4, 6.87, 4.58, 1.98, 2.13, 4.81, 4.65, 4.65, -14.4, -14.4, -14.4, -14.4, -14.4, -14.4, -14.4, -14.4, -14.13, -13.58, -13.01, -12.45, -12.37, -11.44, -11.16, -11.25, -10.3, -10.06, -8.2, -6.63, -6.0, -6.32, -6.2, -5.16, -3.96, -3.98, -4.1, -4.66, -5.62, -6.2, -6.52, -6.15, -5.99, -4.24, 0.0, 5.95, 9.75, 9.6, 0.0, 0.0, 0.0, 0.0, 0.0, 5.0, 10.4, 9.6, 9.6, 9.2, 10.28, 9.2, 9.2, 9.2, 9.75, 9.75, 9.97, 9.2, 8.55, 9.3, 8.53, 8.22, 5.2, 5.2, 0.0, 9.83, 8.8, 8.05, 8.4, -4.6, -3.98, -2.81, -3.51, 0.0, 2.1, 2.45, 0.0, 0.0, 0.0, 0.0, 2.4, 5.51, 6.31, 2.87, 0.0, -2.45, -4.24, -7.44, -4.24, 0.0, 0.0, 0.0, 6.4, 5.28, 2.62, 1.64, 2.28, 5.31, 7.13, 7.13, -14.4, -14.4, -14.4, -14.4, -14.4, -14.03, -14.03, -14.4, -14.13, -13.94, -13.38, -12.45, -11.8, -11.16, -11.16, -10.23, -10.01, -9.94, -9.69, -8.37, -8.14, -7.82, -8.58, -8.31, -7.78, -7.78, -6.79, -7.6, -8.2, -7.9, -7.51, -6.72, -6.21, -4.24, 0.0, 2.6, 5.95, 5.95, 4.8, 4.6, 4.8, 0.0, 3.53, 5.0, 6.71, 8.22, 9.2, 9.2, 9.2, 8.8, 8.8, 9.75, 10.73, 11.18, 9.54, 8.8, 8.94, 7.59, 4.8, 5.2, 0.0, 0.0, 0.0, 9.6, 8.55, 8.55, 9.2, 10.0, 4.48, 4.24, 5.23, 6.55, 5.35, 2.28, -1.1, -7.92, -12.87, -12.87, -5.23, 0.0, 0.0, 0.0, 0.0, 0.0, -2.28, -2.2, 0.0, 6.67, 5.8, 0.0, -4.24, 0.0, 0.0, 0.0, 0.0, 2.98, 4.66, 4.66, -14.03, -14.03, -14.03, -14.03, -14.03, -14.03, -14.03, -14.03, -13.76, -13.58, -13.01, -12.45, -11.8, -11.16, -10.88, -10.3, -10.01, -9.94, -9.86, -10.63, -9.7, -9.79, -10.08, -9.73, -9.8, -9.16, -8.42, -8.1, -6.87, -7.26, -7.14, -6.45, -5.77, -3.68, 0.0, 0.0, 2.71, 2.6, 4.8, 6.2, 3.53, 3.53, 3.53, 6.7, 8.22, 8.53, 6.95, 7.27, 7.27, 9.2, 9.83, 10.28, 10.73, 11.18, 10.41, 9.2, 9.58, 10.0, 8.22, 0.0, 0.0, 0.0, 7.59, 7.9, 7.27, 7.59, 10.18, 12.07, 11.6, 11.75, 11.06, 8.63, 6.22, 0.0, -4.77, -11.16, -15.8, -15.74, -14.03, -10.75, -2.57, 0.0, 3.58, 3.25, 2.28, 0.0, 4.98, 8.38, 5.28, 2.37, -7.51, -8.38, -5.02, -4.24, 0.0, 0.0, 2.89, 2.89, -14.29, -14.03, -14.03, -14.03, -14.03, -13.85, -13.85, -13.85, -13.85, -13.58, -13.01, -12.09, -11.8, -10.88, -10.88, -10.94, -10.35, -10.65, -10.88, -10.99, -10.43, -9.82, -9.5, -9.21, -8.86, -8.2, -7.17, -5.52, -4.75, -3.82, -4.48, -3.68, -4.58, -3.68, -2.28, 0.0, 2.28, 4.32, 4.15, 4.15, 2.19, 2.71, 6.2, 8.53, 9.3, 8.93, 7.59, 6.95, 10.28, 10.28, 10.28, 10.73, 10.73, 11.18, 10.73, 11.18, 11.46, 12.14, 10.4, 10.73, -0.0, 3.39, 7.9, 7.9, 7.9, 10.6, 11.28, 11.71, 12.96, 14.47, 13.99, 15.27, 15.17, 13.39, -8.0, -11.47, -15.49, -17.16, -16.84, -15.61, -11.06, 0.0, 5.09, 7.54, 7.58, 7.44, 8.38, 8.94, 5.81, 1.5, -5.4, -9.48, -7.93, -5.31, 0.0, 0.0, 0.0, 0.0, -14.29, -14.29, -14.03, -13.85, -13.48, -13.48, -13.48, -13.48, -13.48, -13.48, -13.01, -12.45, -11.8, -11.23, -11.16, -10.94, -10.94, -10.94, -10.94, -11.03, -10.45, -8.87, -7.96, -8.24, -7.85, -7.13, -6.2, -4.79, -3.47, -3.04, -2.53, -2.82, -2.28, -2.82, -1.64, 0.0, 1.64, 1.64, 3.19, 1.64, 1.64, 1.91, 2.82, 6.45, 8.22, 9.3, 7.59, 9.39, 9.39, 10.28, 10.28, 10.73, 10.73, 11.18, 10.73, 10.73, 11.18, 12.79, 11.6, 8.4, 6.64, 3.25, 8.22, 10.4, 10.0, 10.38, 11.28, 11.18, 11.03, 11.87, 13.86, 17.88, 23.59, 13.86, -8.05, -9.24, -11.8, -13.89, -15.77, -16.27, -13.67, -8.68, 0.0, 4.95, 6.6, 8.05, 7.69, 6.4, 4.18, 5.34, 0.0, -8.05, -11.44, -7.93, 0.0, 0.0, 0.0, 0.0, -14.29, -14.29, -13.75, -13.75, -13.48, -13.48, -13.48, -13.11, -12.93, -12.93, -12.93, -12.73, -12.37, -11.44, -11.16, -10.94, -11.29, -10.99, -10.69, -10.43, -9.84, -8.59, -7.59, -6.94, -7.19, -6.72, -6.0, -5.15, -4.43, -3.9, -3.35, -2.93, -2.44, -1.84, -1.01, 0.0, 0.0, 1.23, 1.28, 1.28, 1.44, 1.64, 1.91, 4.32, 5.2, 6.2, 8.85, 7.9, 10.73, 11.18, 11.62, 11.18, 10.73, 10.73, 10.28, 10.28, 9.97, 11.71, 12.58, 9.67, 8.94, -0.0, 5.0, 8.22, 10.0, 11.21, 12.07, 12.52, 11.18, 7.9, -11.18, -14.54, -8.2, 19.91, 0.0, -13.41, -13.23, -12.14, -13.19, -14.42, -13.72, -13.28, -10.43, -2.81, 0.0, 0.0, 2.09, 2.09, 2.15, 7.2, 5.46, 2.63, -9.8, -13.15, -11.9, -6.4, -2.28, -2.28, -13.75, -13.75, -13.75, -13.75, -13.75, -13.36, -13.2, -12.93, -12.93, -12.93, -12.93, -12.93, -12.37, -11.8, -11.23, -11.52, -10.99, -10.65, -10.36, -10.4, -9.82, -8.59, -7.96, -6.92, -6.5, -6.04, -6.0, -5.5, -4.98, -4.43, -3.9, -3.47, -3.04, -2.28, -0.86, 0.0, 0.0, 0.0, 1.01, 0.0, 0.0, 1.28, 1.39, 1.58, 1.84, 2.1, 2.82, 5.95, 6.95, 8.18, 10.41, 12.52, 10.73, 10.73, 10.28, 10.28, 9.75, 6.95, 11.62, 8.85, 5.0, 0.0, -0.0, 8.93, 10.79, 11.84, 12.07, 12.07, 12.07, 0.0, -9.48, -8.29, -2.72, 2.51, 7.96, 7.22, 6.64, -11.06, -11.17, -9.48, -11.53, -12.39, -11.5, -9.48, -7.59, -6.6, -4.66, -2.43, 0.0, 11.06, 13.05, 9.06, 4.52, -10.43, -13.01, -9.8, -6.2, -6.2, -13.75, -13.75, -13.36, -13.36, -13.36, -13.2, -13.2, -13.2, -12.82, -12.56, -12.37, -12.37, -12.37, -11.8, -11.23, -10.88, -10.65, -10.65, -10.09, -9.8, -9.5, -9.21, -8.22, -7.57, -6.9, -6.25, -5.8, -5.32, -4.81, -4.28, -4.48, -4.1, -3.53, -2.22, -1.54, -0.8, 0.0, 0.0, 0.0, 0.0, 0.0, 0.0, 0.0, 1.39, 1.52, 1.76, 1.91, 2.02, 4.4, 6.95, 10.0, 10.84, 12.52, 12.07, 11.18, 10.73, 9.75, 8.8, -0.0, 0.0, 0.0, 0.0, 0.0, 9.83, 11.18, 12.07, 12.52, 12.52, 12.3, 0.0, -10.04, -5.31, -1.41, 1.51, 8.13, 12.41, 10.31, 0.0, -9.08, -9.67, -10.91, -11.28, -13.2, -11.53, -11.17, -9.77, -6.8, -7.59, 0.0, 12.65, 10.19, 9.73, 7.28, 2.57, -4.38, -4.52, 0.0, 0.0, -13.36, -13.36, -13.36, -13.2, -13.2, -13.2, -12.82, -12.82, -12.65, -12.65, -12.27, -12.0, -12.0, -11.8, -11.44, -10.88, -10.65, -10.65, -10.09, -9.8, -9.5, -9.17, -8.23, -7.57, -6.9, -6.46, -5.8, -5.32, -5.03, -4.48, -4.7, -4.17, -3.73, -2.93, -2.37, -1.54, -1.64, -1.58, -0.76, -0.79, -0.86, 0.0, 0.0, 0.0, 0.0, 1.58, 1.58, 1.69, 1.62, 4.4, 7.59, 10.0, 9.97, 10.28, 11.18, 10.18, 9.6, 7.27, 2.97, -0.0, 0.0, 0.0, 2.71, 7.59, 12.14, 11.62, 12.07, 12.96, 12.96, -9.17, -10.79, -9.48, -5.99, -1.54, 6.36, 14.29, 11.0, 4.27, -7.87, -9.46, -10.4, -10.79, -11.9, -11.92, -12.39, -11.52, -9.77, -8.05, 0.0, 4.66, 0.0, 0.0, 5.96, 5.23, 4.18, 4.52, 5.31, 5.31, -13.36, -13.36, -13.2, -12.82, -12.82, -12.82, -12.82, -12.82, -12.65, -12.27, -12.27, -12.09, -11.8, -11.8, -11.44, -11.23, -10.65, -9.77, -9.77, -9.48, -9.17, -8.87, -8.53, -7.85, -7.57, -6.46, -5.8, -5.32, -4.65, -4.33, -3.96, -4.02, -3.6, -2.93, -2.37, -2.28, -2.44, -1.58, -1.58, -1.52, -0.86, -0.97, 0.0, 0.0, 0.0, 1.33, 0.0, 0.0, 0.0, 2.02, 5.0, 7.59, 10.18, 10.28, 10.73, 10.4, 10.0, 3.39, 3.25, -0.0, 0.0, 3.53, 5.0, 7.24, 9.67, 11.87, 13.41, 0.0, -12.07, -11.6, -10.12, -8.58, -7.44, -7.69, -2.5, 0.0, 0.0, 0.0, -9.8, -10.14, -10.46, -10.04, -10.85, -10.61, -11.5, -12.39, -12.65, -11.06, 0.0, 0.0, 0.0, 0.0, 1.65, 4.47, 6.72, 9.09, 9.89, 9.89, -12.82, -12.82, -12.82, -12.82, -12.82, -12.82, -12.27, -12.27, -12.27, -12.27, -11.72, -11.72, -11.72, -11.44, -11.23, -11.23, -10.36, -9.77, -9.48, -9.48, -9.17, -8.54, -8.24, -7.85, -7.57, -6.92, -6.5, -5.8, -5.14, -4.86, -4.37, -4.02, -3.6, -2.93, -2.99, -2.28, -2.28, -2.34, -2.34, -1.52, -1.7, -0.93, -1.11, 0.0, 0.0, 2.23, 1.04, 0.0, 0.0, 0.0, 2.19, 5.95, 7.27, 9.2, 10.73, 9.6, 8.53, 5.2, 3.39, 3.53, 7.9, 10.0, 6.7, 6.94, 10.04, 12.3, 13.44, 12.52, -11.62, -11.62, -9.8, -5.48, -4.87, -9.48, -12.07, -13.62, -10.64, -5.28, -8.4, -16.66, -11.45, -8.42, -9.3, -8.53, -9.17, -11.16, -13.41, -14.75, -6.8, 10.75, 14.75, 14.75, 12.22, 6.54, 10.43, 11.29, 12.36, 12.36, -13.09, -13.09, -12.82, -12.82, -12.27, -12.27, -12.27, -12.27, -11.72, -11.72, -11.72, -11.35, -11.52, -11.23, -11.23, -11.23, -10.36, -10.09, -9.48, -9.17, -8.87, -8.54, -8.54, -7.87, -7.87, -7.19, -6.76, -6.04, -5.36, -4.86, -4.33, -3.82, -3.41, -3.47, -2.82, -2.99, -2.99, -2.19, -2.34, -2.25, -1.63, -1.76, -1.01, 0.0, 0.0, 0.0, 0.0, 0.0, 0.0, 0.0, 3.53, 3.25, 4.6, 7.27, 10.73, 9.6, 8.18, 9.3, 8.22, 5.0, 9.6, 11.18, 5.4, 8.22, 12.07, 12.52, 13.41, 14.3, 0.0, -8.8, -10.18, -6.0, -1.6, -4.12, -10.59, -14.12, -12.46, -9.24, -5.04, -7.47, -18.02, -10.41, -8.22, -6.63, -1.44, 2.35, 2.72, 0.0, 10.43, 12.27, 12.81, 15.34, 15.49, 11.06, 11.38, 11.58, 12.33, 12.33, -12.7, -12.7, -12.27, -12.27, -12.27, -12.27, -11.72, -11.72, -11.72, -11.35, -11.35, -11.16, -11.16, -11.16, -10.88, -11.23, -10.69, -10.36, -9.77, -9.17, -8.87, -8.87, -8.54, -7.87, -7.87, -7.48, -7.04, -6.08, -5.6, -5.08, -4.86, -4.54, -3.82, -4.02, -3.28, -3.33, -2.71, -2.88, -2.1, -2.25, -1.63, -1.76, -0.97, -1.18, -1.33, 0.0, 0.0, 0.0, 0.0, 3.53, 4.8, 0.0, 0.0, 0.0, 0.0, 7.59, 9.75, 11.28, 10.41, 10.0, 10.0, 11.62, 8.53, 0.0, -0.0, 10.4, 10.4, 12.96, 5.4, 0.0, -8.06, -9.3, -2.57, 1.62, -1.31, -8.87, -10.68, -8.85, -8.51, -5.65, -10.87, -15.01, -6.67, 0.0, 3.98, 5.14, 4.52, 5.02, 13.88, 13.19, 12.65, 13.7, 15.2, 13.99, 11.06, 10.6, 11.29, 11.29, -12.54, -12.54, -12.54, -12.54, -11.9, -11.72, -11.72, -11.35, -11.62, -11.44, -11.44, -11.07, -11.44, -10.8, -10.88, -10.65, -10.36, -10.36, -9.77, -9.77, -9.17, -8.87, -8.54, -7.87, -7.87, -7.48, -6.8, -6.84, -6.53, -5.2, -5.08, -5.08, -4.54, -4.6, -4.02, -3.87, -3.33, -3.33, -2.76, -2.25, -2.31, -1.76, -0.97, -1.07, -1.07, -2.19, -1.23, 0.0, 0.0, 0.0, 3.39, 0.0, 0.0, -7.59, 0.0, 10.28, 11.18, 11.18, 10.73, 10.28, 10.8, 11.62, 11.62, -0.0, 8.22, 10.0, 9.2, 0.0, 0.0, 0.0, -3.25, -10.28, -9.8, 0.0, 3.4, -2.44, -7.69, -7.9, -8.31, -6.88, -5.39, -4.91, 0.0, 4.52, 5.3, 4.81, 4.67, 4.96, 7.36, 13.86, 12.87, 14.03, 14.75, 14.42, 11.54, 11.06, 11.38, 11.38, -12.16, -12.16, -12.16, -11.99, -11.99, -11.99, -11.62, -11.62, -11.44, -11.44, -11.07, -11.07, -11.07, -10.87, -10.59, -10.65, -10.65, -10.09, -9.77, -9.77, -9.48, -8.58, -8.24, -7.96, -7.89, -7.51, -7.09, -7.09, -6.7, -6.21, -5.47, -5.4, -5.14, -4.6, -4.6, -3.87, -4.08, -3.33, -3.53, -2.76, -2.15, -1.63, -1.76, -0.97, -1.11, -1.07, -1.18, 0.0, 0.0, 0.0, 0.0, 0.0, 0.0, -4.8, 0.0, 10.73, 10.73, 10.73, 10.28, 10.73, 10.73, 10.73, 11.62, 10.73, 11.18, 11.18, 9.6, 10.28, 0.0, 0.0, 0.0, 7.9, -8.22, -10.05, -5.52, -1.48, -5.48, -11.62, 0.0, 0.0, 0.0, 1.3, 2.96, 2.96, 2.05, 1.93, 2.65, 3.48, 3.93, 13.15, 12.58, 13.01, 13.86, 13.28, 10.12, 10.75, 11.54, 11.54, -12.16, -12.16, -11.99, -11.99, -11.99, -11.62, -11.62, -11.44, -11.44, -11.44, -11.07, -11.07, -10.87, -10.87, -10.23, -10.3, -10.06, -10.06, -9.77, -9.77, -9.48, -8.87, -8.58, -7.96, -7.6, -7.51, -7.09, -7.09, -7.09, -5.92, -5.47, -5.47, -5.47, -4.84, -4.84, -4.66, -4.66, -4.08, -3.53, -3.39, -2.95, -2.31, -1.76, -1.92, -0.97, -1.02, -1.14, -1.14, 0.0, 0.0, 0.0, 0.0, -2.6, -3.25, 0.0, 7.27, 10.28, 9.33, 10.28, 10.73, 12.52, 11.18, 11.18, 11.18, 10.28, 10.73, 10.73, 7.59, 0.0, 0.0, 5.6, 5.6, 0.0, -9.33, -11.15, -5.94, 0.0, 8.05, 7.34, 4.21, 2.13, 1.03, 0.0, 0.0, 0.0, 0.0, 0.0, 1.68, 3.1, 10.73, 12.27, 11.87, 12.52, 11.16, 8.05, 10.43, 10.75, 10.75, -11.99, -11.99, -11.62, -11.62, -11.62, -11.62, -11.44, -11.44, -11.44, -11.07, -11.07, -10.87, -10.87, -10.51, -10.3, -10.01, -10.01, -9.72, -9.77, -9.48, -9.48, -9.17, -8.58, -7.96, -7.6, -7.51, -7.09, -7.09, -6.63, -6.63, -5.92, -5.47, -5.47, -4.92, -4.92, -4.92, -4.92, -4.32, -4.15, -3.76, -2.95, -3.02, -2.49, -1.92, -1.84, -1.02, -0.98, -1.14, -1.28, -1.33, -1.52, -1.84, -2.1, -2.49, 0.0, 4.6, 8.8, 9.33, 9.33, 10.28, 9.83, 11.62, 10.73, 11.18, 11.18, 11.18, 10.73, 7.9, -0.0, -0.0, 12.52, 9.8, 0.0, -4.6, -6.91, -2.51, 3.79, 8.2, 6.47, 3.88, 0.0, -1.0, -1.94, -3.18, -2.38, -0.92, 0.0, 0.0, 1.9, 7.51, 12.52, 12.14, 12.52, 11.2, 7.19, 5.8, 9.22, 9.22, -11.62, -11.62, -11.62, -11.62, -11.44, -11.44, -11.44, -11.44, -11.07, -10.87, -10.87, -10.87, -10.87, -10.3, -10.3, -10.3, -9.76, -9.46, -9.46, -9.17, -9.17, -9.17, -8.87, -7.96, -7.6, -7.51, -7.09, -7.09, -6.63, -6.63, -6.14, -6.21, -5.47, -5.26, -4.73, -5.0, -5.0, -4.4, -4.4, -3.76, -3.85, -3.16, -2.49, -1.62, -1.76, -1.76, -1.93, -2.23, -2.23, -2.6, -2.95, -2.95, -1.69, -2.1, 0.0, 0.0, 4.4, 6.95, 6.95, 10.28, 10.28, 8.94, 10.73, 10.28, 9.2, 7.9, 10.28, 7.59, 7.9, -0.0, 0.0, 12.96, 4.95, 1.3, 0.0, 0.0, 2.47, 5.87, 4.42, 1.67, 0.0, -3.16, -3.41, -3.14, -1.9, 0.0, 0.0, 0.0, 1.77, 4.81, 10.79, 12.96, 12.96, 12.96, 5.6, 4.1, 5.15, 5.15, -11.62, -11.62, -11.62, -11.44, -11.07, -11.07, -11.07, -11.07, -10.87, -10.87, -10.87, -10.87, -10.3, -10.3, -10.3, -10.3, -9.76, -9.76, -9.46, -9.46, -9.17, -9.17, -8.87, -8.56, -8.24, -7.61, -7.24, -6.84, -6.84, -6.4, -6.4, -5.92, -6.21, -5.47, -5.26, -5.0, -5.0, -4.4, -4.68, -4.01, -3.85, -3.39, -3.51, -1.58, -1.68, -1.76, -2.71, -2.95, -3.25, -2.6, -2.6, -2.95, -3.25, -1.76, 0.0, 0.0, 3.11, 2.97, 9.33, 9.54, 9.83, 9.39, 10.28, 9.83, 7.59, 7.9, 9.83, 10.28, 9.6, 9.6, 10.4, 12.96, 13.02, 6.59, 3.87, 0.0, -4.38, -3.82, -3.67, -3.16, -1.97, -1.3, -2.2, 0.0, 0.0, 2.54, 2.2, 2.13, 2.13, 4.81, 7.78, 11.16, 11.99, 9.48, 5.8, 0.0, 0.0, 0.0, -11.07, -11.07, -11.07, -11.07, -11.07, -11.07, -11.07, -10.87, -10.87, -10.87, -10.51, -10.3, -10.3, -10.3, -10.3, -10.06, -9.76, -9.42, -9.13, -9.13, -9.46, -9.17, -8.56, -8.56, -8.24, -7.61, -7.24, -7.24, -6.84, -6.4, -6.4, -6.21, -6.21, -5.98, -5.47, -5.54, -5.0, -4.68, -4.68, -4.13, -4.13, -3.39, -3.51, -3.19, -1.76, -2.39, -3.51, -3.82, -3.25, -3.77, -2.49, -2.82, -2.82, -1.69, 0.0, 0.0, 0.0, 2.97, 6.64, 9.54, 9.83, 9.39, 10.73, 9.39, 6.95, 7.59, 10.73, 10.28, 10.18, 11.18, 11.18, 12.96, 13.19, 5.51, 8.48, 6.26, -2.09, -9.49, -10.42, -8.61, -4.12, 0.0, 0.0, 5.48, 9.8, 8.05, 4.38, 4.38, 6.0, 4.98, 8.05, 9.48, 7.44, 6.0, 6.0, 4.1, 0.0, 0.0, -11.07, -11.07, -11.07, -11.07, -11.07, -10.87, -10.87, -10.87, -10.87, -10.51, -10.3, -10.3, -10.3, -10.3, -10.3, -10.06, -9.71, -9.42, -9.15, -8.85, -8.85, -8.85, -8.85, -8.56, -8.24, -7.95, -7.61, -7.24, -6.84, -6.84, -6.4, -6.7, -6.21, -6.21, -5.77, -5.77, -5.0, -5.3, -4.68, -4.8, -4.13, -4.25, -4.25, -3.65, -3.19, -2.59, -3.67, -4.36, -4.18, -3.61, -3.45, -2.7, -2.58, -1.54, -1.54, 0.0, 0.0, 2.83, 6.64, 8.91, 9.83, 9.39, 7.37, 9.83, 9.2, 9.2, 6.95, 10.28, 10.18, 10.84, 11.18, 11.62, 0.0, 0.0, 8.8, 15.59, 10.8, 0.0, -7.36, -8.15, -6.0, 0.0, 4.98, 6.9, 6.67, 6.2, 5.02, 5.81, 5.63, 3.81, 4.38, 5.15, 6.2, 4.38, 4.24, 4.24, 3.14, 0.0, -11.07, -11.07, -10.7, -10.51, -10.87, -10.87, -10.87, -10.51, -10.51, -10.3, -10.3, -10.3, -10.3, -10.3, -10.3, -9.71, -9.71, -9.42, -8.82, -8.53, -8.53, -8.85, -8.85, -8.85, -8.24, -7.95, -7.95, -7.61, -7.24, -6.84, -6.4, -6.45, -5.98, -5.98, -5.77, -5.77, -5.51, -5.3, -5.0, -4.8, -4.44, -4.25, -4.25, -4.92, -5.06, -4.4, -3.82, -4.6, -4.4, -3.45, -3.3, -3.3, -2.58, -1.26, -1.47, 0.0, 0.0, 0.0, 4.0, 8.91, 9.39, 9.39, 10.73, 9.83, 8.8, 9.2, 8.8, 10.73, 9.75, 10.84, 11.03, 11.62, -12.96, -9.8, 4.95, 11.95, 15.93, 10.49, 1.96, -3.14, 0.0, 8.18, 6.2, 3.85, 2.91, 1.96, 2.02, 2.09, 1.83, 1.77, 2.02, 2.35, 2.72, 0.0, 0.0, 0.0, 0.0, 0.0, -10.96, -10.96, -10.51, -10.51, -10.51, -10.51, -10.51, -10.51, -10.3, -10.3, -10.3, -9.94, -9.94, -9.94, -9.94, -9.71, -9.71, -9.71, -9.08, -8.82, -8.53, -8.53, -8.53, -8.24, -8.24, -8.24, -8.24, -7.61, -7.24, -7.24, -6.84, -6.16, -5.98, -5.98, -5.77, -5.77, -5.51, -5.51, -5.0, -5.0, -4.8, -5.14, -4.92, -4.92, -5.14, -4.44, -3.82, -3.45, -3.7, -3.7, -3.7, -3.52, -2.46, -2.46, -1.4, -1.4, 0.0, 0.0, 0.0, 8.0, 9.39, 8.94, 8.24, 9.83, 8.8, 8.8, 9.2, 10.28, 10.28, 10.84, 11.03, 7.9, -12.96, -12.52, -13.19, 0.0, 3.92, 8.18, 9.47, 8.8, 11.27, 10.25, 8.87, 5.49, 2.81, 1.53, 0.0, 0.0, 0.0, -1.77, -2.02, -2.35, -2.72, -2.63, -3.14, -2.54, -2.54, -2.54, -10.79, -10.79, -10.51, -10.51, -10.51, -10.51, -10.51, -9.94, -9.94, -9.94, -9.94, -9.94, -9.94, -9.94, -9.71, -9.71, -9.71, -9.71, -9.37, -8.82, -8.53, -8.24, -8.24, -8.24, -8.24, -8.24, -8.2, -8.2, -7.61, -7.24, -6.84, -6.4, -5.98, -5.98, -5.77, -5.77, -5.51, -5.51, -5.51, -5.0, -5.0, -4.8, -5.14, -5.14, -5.14, -4.62, -3.98, -3.99, -3.3, -3.52, -3.52, -3.52, -3.52, -2.46, -2.69, -1.4, -1.58, -1.95, 0.0, 8.0, 8.94, 8.67, 8.67, 10.73, 9.83, 8.8, 9.2, 10.73, 10.28, 10.6, 10.6, 10.73, -11.62, -12.96, -13.01, -10.75, -1.97, 3.13, 10.27, 13.83, 15.22, 14.05, 9.76, 7.85, 5.18, 3.65, 0.0, -2.02, -4.52, -5.63, -4.38, -7.13, -8.31, -9.48, -5.8, -5.8, -5.8, -5.8, -10.79, -10.79, -10.41, -10.15, -10.15, -9.94, -9.94, -9.94, -9.94, -9.94, -9.94, -9.94, -9.94, -9.71, -9.71, -9.71, -9.71, -9.37, -9.37, -8.82, -8.82, -8.53, -8.24, -8.54, -8.54, -8.2, -8.2, -8.2, -7.82, -7.54, -6.84, -6.84, -6.45, -5.98, -5.47, -5.77, -5.2, -5.51, -5.51, -5.0, -5.0, -4.8, -4.8, -5.14, -5.14, -4.8, -4.8, -3.82, -3.99, -3.45, -3.7, -3.7, -4.0, -2.83, -2.83, -2.69, -2.69, -2.99, 0.0, 7.6, 8.06, 8.48, 8.67, 8.24, 9.6, 8.8, 8.8, 8.4, 10.28, 10.73, 11.62, 0.0, -11.18, -11.87, -11.16, -7.93, 0.0, 1.66, 7.21, 13.98, 18.93, 18.0, 12.76, 7.7, 6.81, 6.37, 3.58, 0.0, -4.66, -6.9, -8.58, -11.2, -11.6, -11.6, -10.37, -10.01, -10.01, -10.01, -10.41, -10.41, -10.41, -9.94, -9.94, -9.94, -9.94, -9.94, -9.94, -9.94, -9.94, -9.94, -9.71, -9.71, -9.71, -9.71, -9.37, -9.37, -9.12, -9.12, -8.82, -8.53, -8.53, -8.21, -8.52, -8.2, -8.2, -8.2, -7.82, -7.54, -7.14, -7.14, -6.45, -5.98, -5.98, -5.77, -5.77, -5.51, -5.51, -5.86, -5.0, -5.0, -5.0, -5.14, -5.14, -4.8, -4.8, -4.6, -4.18, -3.99, -3.45, -3.7, -3.7, -4.0, -4.0, -3.8, -3.8, -4.14, 0.0, 7.2, 8.06, 7.07, 7.44, 8.4, 8.0, 9.2, 8.8, 8.0, 9.83, 10.28, 10.28, 0.0, 0.0, -5.6, 0.0, 0.0, 3.69, 1.78, 6.11, 12.01, 17.28, 17.42, 12.3, 9.36, 9.0, 6.93, 4.01, 0.0, -2.81, -9.8, -13.01, -12.07, -12.52, -12.52, -12.27, -11.84, -11.84, -11.84, -10.41, -10.41, -10.41, -9.94, -9.59, -9.94, -9.94, -9.94, -9.94, -9.94, -9.94, -9.37, -9.37, -9.37, -9.37, -9.37, -9.37, -9.37, -9.12, -9.12, -9.12, -8.84, -8.53, -8.21, -8.21, -8.52, -8.15, -8.15, -7.82, -7.54, -7.14, -7.14, -6.45, -6.45, -5.98, -5.47, -5.77, -5.77, -5.51, -5.3, -5.63, -5.0, -5.0, -5.0, -5.14, -5.14, -4.8, -4.6, -4.99, -4.18, -3.99, -4.2, -3.7, -3.52, -3.8, -3.8, -3.8, -2.99, 0.0, 5.69, 5.69, 6.01, 7.07, 8.0, 8.0, 8.8, 8.4, 8.4, 9.83, 9.83, 10.28, 11.18, 0.0, 0.0, 0.0, 4.24, 2.81, 4.18, 7.2, 12.56, 13.28, 12.13, 12.99, 14.08, 12.89, 7.58, 2.21, 0.0, -9.8, -12.58, -12.27, -12.27, -11.91, -11.91, -11.91, -12.07, -12.07, -12.07, -10.41, -10.41, -10.41, -9.86, -9.59, -9.59, -9.59, -9.94, -9.71, -9.42, -9.37, -9.37, -9.37, -9.37, -9.37, -9.37, -9.37, -9.12, -9.12, -9.12, -9.12, -9.12, -8.84, -8.21, -8.21, -8.52, -8.15, -8.15, -7.85, -7.85, -7.46, -7.18, -7.18, -6.45, -6.45, -6.29, -5.77, -5.54, -5.0, -5.3, -5.3, -5.63, -5.0, -5.0, -5.35, -5.14, -5.52, -4.6, -4.99, -4.99, -3.99, -3.99, -4.2, -3.52, -4.0, -3.35, -3.8, -2.99, 0.0, 2.54, 3.4, 5.69, 7.07, 7.15, 7.15, 9.2, 8.8, 8.91, 9.83, 9.83, 10.28, 10.73, 11.62, 0.0, 0.0, 0.0, 0.0, 5.31, 9.44, 12.02, 10.76, 11.16, 15.82, 19.26, 17.33, 11.43, 0.0, -7.19, -7.78, -10.01, -10.73, -10.35, -9.08, -9.58, -10.6, -10.58, -10.58, -10.58, -10.41, -10.41, -9.86, -9.86, -9.59, -9.59, -9.37, -9.37, -9.37, -9.08, -9.08, -9.08, -9.08, -9.37, -9.37, -9.37, -9.37, -9.12, -9.12, -9.12, -9.12, -8.84, -8.84, -8.84, -8.21, -8.21, -8.21, -7.85, -7.85, -7.85, -7.46, -7.18, -7.18, -6.76, -6.76, -6.76, -6.04, -5.54, -5.54, -5.3, -5.3, -5.3, -5.63, -5.63, -5.35, -5.35, -5.52, -5.52, -4.6, -4.99, -4.78, -4.78, -4.2, -4.0, -3.52, -3.35, -2.33, -1.32, 0.0, 0.0, 0.0, 4.22, 5.69, 6.01, 6.79, 8.0, 8.94, 9.39, 9.39, 9.83, 9.33, 10.28, 11.18, 0.0, 0.0, 0.0, 0.0, 7.44, 10.12, 11.52, 11.06, 12.45, 16.09, 18.45, 17.55, 9.4, -5.95, -4.6, -5.2, -7.51, -8.53, -9.08, -8.38, -8.03, -8.8, -8.91, -8.91, -8.91, -10.41, -10.41, -9.86, -9.86, -9.86, -9.59, -9.37, -9.37, -9.37, -9.08, -9.08, -9.08, -9.08, -9.08, -9.08, -9.37, -9.12, -9.12, -9.12, -9.12, -8.84, -8.84, -8.84, -8.84, -8.84, -8.21, -8.21, -7.85, -7.85, -7.85, -7.18, -7.18, -7.18, -6.9, -6.5, -6.5, -6.04, -6.04, -5.54, -5.54, -5.3, -5.3, -5.3, -5.63, -5.63, -5.35, -5.14, -5.52, -5.29, -4.99, -4.99, -4.78, -4.56, -4.0, -4.0, -3.35, -2.33, -2.54, -1.32, 0.0, 0.0, 2.4, 4.22, 5.69, 6.44, 8.0, 8.94, 9.39, 9.39, 9.33, 9.33, 9.33, 6.95, 0.0, 0.0, 0.0, 0.0, 12.96, 13.15, 12.27, 12.65, 12.27, 12.73, 11.53, 10.49, -10.41, -12.27, -6.24, -6.24, -6.71, -8.22, -9.08, -7.9, -8.38, -9.2, -9.33, -9.33, -9.33, -10.41, -10.04, -9.86, -9.86, -9.86, -9.59, -9.37, -9.37, -9.37, -9.08, -9.08, -9.08, -9.08, -9.08, -9.08, -8.82, -9.12, -9.12, -9.12, -9.12, -8.84, -8.84, -8.84, -8.84, -8.84, -8.53, -8.53, -8.53, -7.85, -7.56, -7.18, -7.18, -6.9, -6.81, -6.81, -6.81, -6.36, -6.36, -6.36, -5.86, -5.86, -5.3, -5.3, -5.3, -5.63, -6.0, -5.14, -5.52, -5.52, -5.29, -4.99, -4.78, -4.78, -4.74, -4.0, -3.8, -3.35, -2.21, -2.54, 0.0, 0.0, 2.4, 4.22, 4.22, 5.37, 5.95, 9.39, 9.39, 9.39, 9.83, 10.28, 9.75, 9.2, 9.83, 0.0, 0.0, 0.0, 12.96, 13.41, 13.86, 13.88, 12.27, 12.27, 7.6, 0.0, -5.65, -16.09, -10.35, -9.2, -9.2, -10.0, -10.0, -9.3, -7.9, -9.2, -9.13, -9.13, -9.13, -9.86, -9.86, -9.86, -9.86, -9.86, -9.86, -9.37, -9.37, -9.37, -9.08, -9.08, -9.08, -9.08, -8.82, -8.82, -8.82, -8.82, -9.12, -9.12, -9.12, -8.84, -8.84, -8.84, -8.53, -8.53, -8.53, -8.53, -8.22, -7.88, -7.88, -7.51, -7.22, -7.22, -6.81, -6.81, -6.81, -6.36, -6.36, -6.36, -5.86, -5.86, -5.86, -5.86, -5.3, -5.63, -6.0, -5.76, -5.52, -5.52, -5.29, -5.7, -4.78, -4.78, -4.34, -4.0, -3.8, -2.98, -3.35, -1.14, 0.0, 0.0, 0.0, 2.4, 4.22, 4.22, 5.37, 9.39, 6.64, -0.0, -0.0, 9.83, 0.0, 0.0, 7.27, 0.0, 0.0, 0.0, -0.0, 9.17, 12.96, 13.41, 12.39, 10.43, 4.15, 0.0, -2.17, -15.36, -12.79, -11.62, -10.14, -10.96, -10.38, -9.97, -8.22, -7.59, -8.23, -8.23, -8.23, -9.86, -9.86, -9.86, -9.86, -9.86, -9.86, -9.66, -9.37, -9.37, -9.08, -8.82, -8.82, -8.82, -8.82, -8.82, -8.82, -8.82, -8.82, -9.12, -9.12, -8.84, -8.84, -8.53, -8.53, -8.22, -8.22, -8.22, -7.88, -7.88, -7.88, -7.58, -7.22, -7.22, -6.81, -6.81, -6.81, -6.36, -6.36, -6.36, -6.36, -5.86, -5.86, -5.86, -5.86, -5.63, -5.63, -6.0, -6.15, -5.52, -5.29, -5.7, -5.46, -4.56, -4.34, -4.74, -3.8, -3.8, -3.35, -2.21, -1.32, 0.0, 0.0, 0.0, 1.84, 2.4, 2.4, 5.37, 5.37, -0.0, -0.0, -0.0, -10.28, -10.28, 0.0, 10.28, 0.0, -11.62, -0.0, -0.0, 8.85, 12.96, 13.44, 8.2, 7.58, 2.96, 0.0, -14.75, -12.71, -11.84, -11.62, -11.02, -10.6, -9.58, -7.9, -6.44, -6.17, -6.17, -6.17, -9.86, -9.86, -9.86, -9.86, -9.86, -9.86, -9.3, -9.02, -9.37, -9.37, -8.82, -8.82, -8.82, -8.82, -8.82, -8.82, -8.82, -8.82, -9.12, -9.12, -8.84, -8.84, -8.84, -8.22, -8.22, -8.22, -7.88, -7.88, -7.58, -7.58, -7.58, -7.22, -7.22, -6.81, -6.81, -6.81, -6.71, -6.71, -6.36, -6.36, -6.36, -5.86, -5.86, -5.86, -6.2, -6.2, -6.0, -5.76, -6.15, -5.52, -5.29, -5.7, -4.56, -4.56, -4.74, -3.8, -3.8, -3.35, -2.21, -2.54, -1.58, 0.0, 0.0, 0.0, 0.0, 2.54, 3.6, 0.0, -0.0, -3.39, -4.8, -7.59, -10.73, 0.0, 9.83, 9.83, -10.73, -8.22, -0.0, -0.0, 8.85, 13.41, 11.73, 13.39, 12.19, 12.64, -12.39, -9.6, -9.96, -10.38, -10.0, -10.68, -9.97, -7.9, -7.9, -0.0, -0.0, -0.0, -9.86, -9.86, -9.86, -9.86, -9.86, -9.86, -9.3, -9.3, -9.02, -9.02, -9.12, -8.82, -8.82, -8.82, -8.82, -8.82, -8.5, -8.5, -8.78, -8.78, -8.52, -8.52, -8.52, -8.22, -8.22, -8.22, -7.58, -7.58, -7.58, -7.58, -7.22, -7.22, -7.22, -6.81, -6.81, -7.15, -6.71, -6.71, -6.36, -6.36, -6.36, -6.36, -5.62, -5.95, -5.95, -5.95, -6.31, -5.76, -5.76, -6.15, -5.29, -5.29, -5.21, -4.56, -4.34, -4.74, -3.8, -4.21, -3.17, -2.54, -2.54, -1.58, 0.0, 0.0, 0.0, 0.0, 0.0, 0.0, 0.0, -4.8, -4.8, -4.8, -7.59, -0.0, 10.28, 10.28, 0.0, -11.18, -8.22, -5.4, -0.0, 12.79, 12.64, 10.81, 10.63, 0.0, -7.2, -8.22, -8.94, -8.73, -9.67, -9.97, -10.4, -8.22, -0.0, 8.55, 8.55, 8.55, -9.86, -9.86, -9.86, -9.86, -9.86, -9.86, -9.3, -9.3, -9.3, -9.02, -9.02, -8.82, -8.82, -8.82, -8.5, -8.5, -8.78, -8.78, -8.78, -8.52, -8.52, -8.52, -8.52, -8.22, -8.22, -7.9, -7.58, -7.58, -7.58, -7.22, -7.22, -7.22, -7.22, -6.87, -6.87, -6.87, -7.15, -6.71, -6.71, -6.36, -6.36, -6.11, -6.11, -5.95, -5.95, -5.95, -6.31, -5.76, -5.76, -5.76, -5.29, -5.06, -5.21, -4.56, -4.34, -4.74, -3.8, -4.21, -3.35, -3.17, -2.54, -1.58, -1.58, -1.58, 0.0, 0.0, 0.0, 0.0, 0.0, -7.27, -4.6, -4.8, -7.27, -0.0, -0.0, 0.0, 0.0, -10.28, -10.73, -8.22, -0.0, 0.0, 0.0, 0.0, 4.26, 0.0, -19.22, -8.43, -9.3, -10.0, -10.4, -10.4, 0.0, 11.03, 11.18, 10.96, 10.96, 10.96, -10.04, -10.04, -9.86, -9.86, -9.86, -9.86, -9.3, -9.3, -9.3, -9.3, -9.02, -8.78, -8.5, -8.5, -8.5, -8.5, -8.78, -8.78, -8.78, -8.52, -8.52, -8.52, -8.52, -7.9, -7.9, -7.9, -7.58, -7.58, -7.58, -6.93, -6.93, -6.93, -6.93, -6.87, -6.87, -6.87, -6.87, -7.15, -6.71, -6.36, -6.36, -6.11, -6.44, -5.95, -5.95, -6.31, -6.31, -5.76, -5.76, -5.76, -5.52, -5.06, -5.06, -5.21, -4.34, -4.74, -4.5, -3.8, -4.21, -3.35, -2.54, -2.54, -2.54, -1.67, -1.67, -1.67, -2.17, -2.83, -4.0, -10.28, -9.2, -9.2, -6.95, -6.64, -6.64, -9.39, -9.39, -8.4, -10.28, -8.22, -0.0, -13.41, -10.43, -3.42, 0.0, 0.0, -4.77, -15.65, -12.52, -11.28, -9.67, 0.0, 10.04, 12.07, 11.62, 11.53, 11.53, 11.53, -10.3, -10.3, -10.13, -9.86, -9.86, -9.5, -9.3, -9.3, -9.3, -9.3, -9.3, -8.78, -8.78, -8.5, -8.5, -8.5, -8.5, -8.78, -8.78, -8.52, -8.52, -8.52, -8.19, -8.19, -7.9, -7.9, -7.9, -7.58, -7.28, -6.93, -6.93, -6.93, -6.93, -6.54, -6.87, -6.87, -6.87, -6.87, -6.44, -6.11, -6.11, -6.11, -6.44, -5.95, -5.95, -6.31, -6.31, -6.31, -5.76, -5.76, -5.52, -5.06, -5.06, -4.83, -4.34, -4.34, -4.5, -3.8, -4.21, -3.35, -3.8, -3.8, -2.69, -2.69, -3.15, -1.67, -1.75, -2.17, -4.96, -6.32, -9.39, -9.3, -7.27, -8.4, -9.39, -9.39, -9.39, -9.83, 0.0, 0.0, 0.0, -13.41, -12.27, -6.14, -2.83, 0.0, 0.0, -7.2, -11.9, -9.48, -6.44, 0.0, 11.2, 12.96, 12.07, 11.98, 11.98, 11.98, -10.3, -10.3, -10.13, -10.13, -9.86, -9.5, -9.3, -9.3, -9.3, -9.3, -9.3, -9.08, -8.78, -8.78, -8.5, -8.5, -8.5, -8.78, -8.78, -8.19, -8.19, -8.19, -8.19, -8.19, -7.9, -7.9, -7.9, -7.58, -7.28, -7.28, -6.93, -6.93, -6.93, -6.54, -6.54, -6.87, -6.87, -6.87, -6.11, -6.11, -6.11, -6.44, -6.44, -5.95, -5.95, -6.31, -6.31, -6.31, -5.76, -5.76, -5.52, -4.71, -5.06, -4.83, -4.83, -4.34, -4.34, -4.5, -3.8, -4.21, -3.35, -3.35, -3.8, -2.69, -2.69, -3.15, -3.32, -3.32, -4.0, -4.96, -8.91, -10.6, -8.55, -9.6, -9.39, -9.83, -9.83, -6.95, -4.6, 0.0, 0.0, -12.96, -11.9, -8.05, -5.1, 0.0, 0.0, 0.0, 0.0, -2.28, -2.06, 0.0, 7.24, 12.27, 12.52, 11.98, 11.98, 11.98, -10.13, -10.13, -10.13, -10.13, -10.13, -9.5, -9.3, -9.3, -9.3, -9.3, -9.08, -9.08, -9.08, -8.78, -8.78, -8.78, -8.5, -8.5, -8.78, -8.19, -8.19, -8.19, -8.19, -8.19, -7.9, -7.9, -7.9, -7.58, -7.28, -7.28, -6.93, -6.93, -6.93, -6.54, -6.54, -6.54, -6.54, -6.54, -6.11, -6.11, -6.44, -6.44, -6.44, -5.95, -5.95, -6.31, -6.31, -5.76, -5.76, -5.52, -5.52, -5.28, -4.71, -4.83, -4.83, -4.96, -4.34, -4.34, -4.74, -3.8, -4.21, -4.21, -3.35, -3.35, -3.8, -3.8, -3.32, -3.32, -3.32, -3.32, -6.64, -9.39, -9.39, -11.62, -9.39, -9.83, -8.8, -8.8, -7.27, -10.73, -11.62, -12.96, -11.53, -8.85, -4.55, 0.0, 3.67, 4.55, 4.12, 2.89, 3.01, 3.68, 4.1, 10.01, 12.52, 12.35, 12.35, 12.35, -10.13, -10.13, -10.13, -10.13, -10.13, -9.5, -9.3, -9.3, -9.3, -9.3, -9.08, -9.08, -9.08, -8.78, -8.78, -8.78, -8.5, -8.5, -8.78, -8.19, -8.19, -8.19, -8.19, -8.19, -7.9, -7.9, -7.9, -7.58, -7.28, -7.28, -6.93, -6.93, -6.93, -6.54, -6.54, -6.54, -6.54, -6.54, -6.11, -6.11, -6.44, -6.44, -6.44, -5.95, -5.95, -6.31, -6.31, -5.76, -5.76, -5.52, -5.52, -5.28, -4.71, -4.83, -4.83, -4.96, -4.34, -4.34, -4.74, -3.8, -4.21, -4.21, -3.35, -3.35, -3.8, -3.8, -3.32, -3.32, -3.32, -3.32, -6.64, -9.39, -9.39, -11.62, -9.39, -9.83, -8.8, -8.8, -7.27, -10.73, -11.62, -11.2, -11.16, -8.58, -3.9, 0.0, 1.69, 4.4, 6.47, 6.34, 6.37, 6.4, 6.2, 6.65, 10.01, 12.07, 12.07, 12.07]}]